| time (UTC) | temp C | wind direction | speed KPH | gust KPH | rain 1hr cm | rain 24hr cm | rain mn cm | humidity % | barometer mb |
| 20260506035748 | 25 | 190 | 12.9 | 22.5 | 0.00 | 0.13 | 0.13 | 90 | 1000.3 |
| 20260506035648 | 25 | 186 | 11.3 | 22.5 | 0.00 | 0.13 | 0.13 | 90 | 1000.4 |
| 20260506035548 | 25 | 169 | 11.3 | 22.5 | 0.00 | 0.13 | 0.13 | 90 | 1000.4 |
| 20260506035450 | 25 | 197 | 12.9 | 22.5 | 0.00 | 0.13 | 0.13 | 90 | 1000.4 |
| 20260506035348 | 25 | 188 | 12.9 | 22.5 | 0.00 | 0.13 | 0.13 | 90 | 1000.4 |
| 20260506035247 | 25 | 192 | 11.3 | 19.3 | 0.00 | 0.13 | 0.13 | 90 | 1000.5 |
| 20260506035149 | 25 | 178 | 12.9 | 19.3 | 0.00 | 0.13 | 0.13 | 90 | 1000.4 |
| 20260506035048 | 25 | 159 | 11.3 | 19.3 | 0.00 | 0.13 | 0.13 | 90 | 1000.4 |
| 20260506034948 | 25 | 196 | 8.0 | 19.3 | 0.00 | 0.13 | 0.13 | 90 | 1000.3 |
| 20260506034848 | 25 | 180 | 8.0 | 19.3 | 0.00 | 0.13 | 0.13 | 90 | 1000.3 |
| 20260506034749 | 25 | 166 | 9.7 | 19.3 | 0.00 | 0.13 | 0.13 | 90 | 1000.2 |
| 20260506034649 | 25 | 190 | 11.3 | 19.3 | 0.00 | 0.13 | 0.13 | 90 | 1000.2 |
| 20260506034548 | 25 | 203 | 12.9 | 19.3 | 0.00 | 0.13 | 0.13 | 90 | 1000.2 |
| 20260506034449 | 25 | 209 | 11.3 | 20.9 | 0.00 | 0.13 | 0.13 | 90 | 1000.3 |
| 20260506034348 | 25 | 178 | 8.0 | 20.9 | 0.00 | 0.13 | 0.13 | 90 | 1000.2 |
| 20260506034248 | 25 | 186 | 9.7 | 20.9 | 0.00 | 0.13 | 0.13 | 90 | 1000.2 |
| 20260506034147 | 25 | 182 | 11.3 | 20.9 | 0.00 | 0.13 | 0.13 | 90 | 1000.2 |
| 20260506034049 | 25 | 180 | 12.9 | 20.9 | 0.00 | 0.13 | 0.13 | 89 | 1000.2 |
| 20260506033947 | 25 | 180 | 14.5 | 20.9 | 0.00 | 0.13 | 0.13 | 89 | 1000.1 |
| 20260506033848 | 25 | 186 | 14.5 | 20.9 | 0.00 | 0.13 | 0.13 | 89 | 1000.1 |
| 20260506033748 | 25 | 175 | 12.9 | 20.9 | 0.00 | 0.15 | 0.13 | 89 | 1000.2 |
| 20260506033648 | 25 | 193 | 11.3 | 20.9 | 0.00 | 0.15 | 0.13 | 89 | 1000.1 |
| 20260506033547 | 25 | 200 | 9.7 | 20.9 | 0.00 | 0.15 | 0.13 | 89 | 1000.1 |
| 20260506033447 | 25 | 193 | 9.7 | 20.9 | 0.00 | 0.15 | 0.13 | 89 | 1000.1 |
| 20260506033349 | 25 | 188 | 12.9 | 20.9 | 0.00 | 0.15 | 0.13 | 89 | 1000.0 |
| 20260506033247 | 25 | 186 | 12.9 | 20.9 | 0.00 | 0.15 | 0.13 | 89 | 1000.0 |
| 20260506033147 | 25 | 193 | 11.3 | 20.9 | 0.00 | 0.15 | 0.13 | 89 | 1000.0 |
| 20260506033049 | 25 | 207 | 12.9 | 20.9 | 0.00 | 0.15 | 0.13 | 89 | 1000.0 |
| 20260506032947 | 25 | 179 | 12.9 | 20.9 | 0.00 | 0.15 | 0.13 | 89 | 1000.0 |
| 20260506032848 | 25 | 180 | 12.9 | 20.9 | 0.00 | 0.15 | 0.13 | 89 | 1000.0 |
| 20260506032747 | 25 | 213 | 12.9 | 20.9 | 0.00 | 0.15 | 0.13 | 89 | 1000.0 |
| 20260506032649 | 25 | 207 | 11.3 | 22.5 | 0.00 | 0.15 | 0.13 | 89 | 999.9 |
| 20260506032547 | 25 | 182 | 11.3 | 22.5 | 0.00 | 0.15 | 0.13 | 89 | 1000.0 |
| 20260506032448 | 25 | 188 | 12.9 | 24.1 | 0.00 | 0.15 | 0.13 | 89 | 1000.0 |
| 20260506032348 | 25 | 180 | 14.5 | 24.1 | 0.00 | 0.15 | 0.13 | 89 | 1000.0 |
| 20260506032248 | 25 | 172 | 12.9 | 24.1 | 0.00 | 0.15 | 0.13 | 89 | 1000.0 |
| 20260506032149 | 25 | 172 | 12.9 | 24.1 | 0.00 | 0.15 | 0.13 | 89 | 1000.1 |
| 20260506032048 | 25 | 172 | 12.9 | 24.1 | 0.00 | 0.15 | 0.13 | 89 | 1000.0 |
| 20260506031948 | 25 | 180 | 12.9 | 24.1 | 0.00 | 0.15 | 0.13 | 89 | 1000.1 |
| 20260506031847 | 25 | 195 | 14.5 | 24.1 | 0.00 | 0.15 | 0.13 | 89 | 1000.1 |
| 20260506031747 | 25 | 190 | 14.5 | 24.1 | 0.00 | 0.15 | 0.13 | 89 | 1000.1 |
| 20260506031649 | 25 | 186 | 14.5 | 24.1 | 0.00 | 0.15 | 0.13 | 89 | 1000.2 |
| 20260506031547 | 25 | 180 | 11.3 | 24.1 | 0.00 | 0.15 | 0.13 | 89 | 1000.1 |
| 20260506031447 | 25 | 188 | 9.7 | 19.3 | 0.00 | 0.15 | 0.13 | 89 | 1000.1 |
| 20260506031347 | 25 | 182 | 12.9 | 19.3 | 0.00 | 0.15 | 0.13 | 89 | 1000.2 |
| 20260506031248 | 25 | 179 | 11.3 | 19.3 | 0.00 | 0.15 | 0.13 | 89 | 1000.1 |
| 20260506031147 | 25 | 195 | 11.3 | 19.3 | 0.00 | 0.15 | 0.13 | 88 | 1000.0 |
| 20260506031047 | 25 | 193 | 11.3 | 19.3 | 0.00 | 0.15 | 0.13 | 88 | 1000.0 |
| 20260506030949 | 25 | 192 | 11.3 | 19.3 | 0.00 | 0.15 | 0.13 | 88 | 1000.0 |
| 20260506030847 | 25 | 189 | 11.3 | 19.3 | 0.00 | 0.15 | 0.13 | 88 | 1000.0 |
| 20260506030747 | 25 | 196 | 11.3 | 19.3 | 0.00 | 0.15 | 0.13 | 88 | 999.9 |
| 20260506030649 | 25 | 188 | 9.7 | 19.3 | 0.00 | 0.15 | 0.13 | 88 | 1000.0 |
| 20260506030547 | 25 | 197 | 12.9 | 19.3 | 0.00 | 0.15 | 0.13 | 88 | 999.9 |
| 20260506030447 | 25 | 182 | 12.9 | 19.3 | 0.00 | 0.15 | 0.13 | 88 | 999.9 |
| 20260506030347 | 25 | 188 | 11.3 | 22.5 | 0.00 | 0.15 | 0.13 | 88 | 999.9 |
| 20260506030248 | 25 | 165 | 12.9 | 22.5 | 0.00 | 0.15 | 0.13 | 88 | 999.8 |
| 20260506030147 | 25 | 178 | 11.3 | 22.5 | 0.00 | 0.15 | 0.13 | 88 | 999.7 |
| 20260506030047 | 25 | 176 | 11.3 | 24.1 | 0.00 | 0.15 | 0.13 | 88 | 999.8 |
| 20260506025948 | 25 | 180 | 11.3 | 24.1 | 0.00 | 0.15 | 0.13 | 88 | 999.8 |
| 20260506025847 | 25 | 197 | 11.3 | 24.1 | 0.00 | 0.15 | 0.13 | 88 | 999.9 |
| 20260506025747 | 25 | 179 | 11.3 | 24.1 | 0.00 | 0.15 | 0.13 | 88 | 999.8 |
| 20260506025646 | 25 | 183 | 11.3 | 24.1 | 0.00 | 0.15 | 0.13 | 88 | 999.8 |
| 20260506025548 | 25 | 189 | 12.9 | 24.1 | 0.00 | 0.15 | 0.13 | 88 | 999.7 |
| 20260506025447 | 25 | 193 | 14.5 | 24.1 | 0.00 | 0.15 | 0.13 | 88 | 999.8 |
| 20260506025346 | 25 | 180 | 14.5 | 24.1 | 0.00 | 0.15 | 0.13 | 88 | 999.7 |
| 20260506025247 | 25 | 173 | 14.5 | 24.1 | 0.00 | 0.15 | 0.13 | 88 | 999.7 |
| 20260506025148 | 25 | 166 | 12.9 | 24.1 | 0.00 | 0.15 | 0.13 | 88 | 999.7 |
| 20260506025046 | 25 | 185 | 12.9 | 20.9 | 0.00 | 0.15 | 0.13 | 88 | 999.7 |
| 20260506024947 | 25 | 176 | 14.5 | 20.9 | 0.00 | 0.15 | 0.13 | 88 | 999.7 |
| 20260506024848 | 25 | 192 | 14.5 | 20.9 | 0.00 | 0.15 | 0.13 | 88 | 999.7 |
| 20260506024746 | 25 | 188 | 12.9 | 20.9 | 0.00 | 0.15 | 0.13 | 88 | 999.6 |
| 20260506024646 | 25 | 195 | 12.9 | 19.3 | 0.00 | 0.15 | 0.13 | 88 | 999.6 |
| 20260506024547 | 25 | 196 | 12.9 | 19.3 | 0.00 | 0.15 | 0.13 | 88 | 999.7 |
| 20260506024446 | 25 | 213 | 12.9 | 19.3 | 0.00 | 0.15 | 0.13 | 88 | 999.6 |
| 20260506024346 | 25 | 196 | 11.3 | 19.3 | 0.00 | 0.15 | 0.13 | 88 | 999.7 |
| 20260506024246 | 25 | 180 | 11.3 | 19.3 | 0.00 | 0.15 | 0.13 | 87 | 999.7 |
| 20260506024147 | 25 | 186 | 11.3 | 19.3 | 0.00 | 0.15 | 0.13 | 87 | 999.7 |
| 20260506024046 | 25 | 196 | 9.7 | 19.3 | 0.00 | 0.15 | 0.13 | 87 | 999.7 |
| 20260506023947 | 25 | 192 | 9.7 | 20.9 | 0.00 | 0.15 | 0.13 | 87 | 999.6 |
| 20260506023848 | 25 | 182 | 11.3 | 20.9 | 0.00 | 0.15 | 0.13 | 87 | 999.6 |
| 20260506023746 | 25 | 179 | 11.3 | 20.9 | 0.00 | 0.15 | 0.13 | 87 | 999.6 |
| 20260506023646 | 25 | 182 | 12.9 | 20.9 | 0.00 | 0.15 | 0.13 | 87 | 999.5 |
| 20260506023546 | 25 | 164 | 12.9 | 20.9 | 0.00 | 0.15 | 0.13 | 87 | 999.5 |
| 20260506023447 | 25 | 151 | 12.9 | 20.9 | 0.00 | 0.15 | 0.13 | 87 | 999.5 |
| 20260506023346 | 25 | 188 | 12.9 | 20.9 | 0.00 | 0.15 | 0.13 | 87 | 999.4 |
| 20260506023246 | 25 | 189 | 11.3 | 20.9 | 0.00 | 0.15 | 0.13 | 87 | 999.3 |
| 20260506023147 | 25 | 186 | 14.5 | 20.9 | 0.00 | 0.15 | 0.13 | 87 | 999.3 |
| 20260506023046 | 25 | 159 | 14.5 | 20.9 | 0.00 | 0.15 | 0.13 | 87 | 999.2 |
| 20260506022946 | 25 | 173 | 11.3 | 20.9 | 0.00 | 0.15 | 0.13 | 87 | 999.2 |
| 20260506022846 | 25 | 173 | 12.9 | 20.9 | 0.00 | 0.15 | 0.13 | 87 | 999.2 |
| 20260506022747 | 25 | 169 | 12.9 | 20.9 | 0.00 | 0.15 | 0.13 | 87 | 999.2 |
| 20260506022646 | 25 | 206 | 12.9 | 20.9 | 0.00 | 0.15 | 0.13 | 87 | 999.1 |
| 20260506022546 | 25 | 161 | 14.5 | 22.5 | 0.00 | 0.15 | 0.13 | 87 | 999.1 |
| 20260506022447 | 25 | 178 | 12.9 | 22.5 | 0.00 | 0.15 | 0.13 | 87 | 999.1 |
| 20260506022345 | 25 | 175 | 12.9 | 22.5 | 0.00 | 0.15 | 0.13 | 86 | 999.1 |
| 20260506022246 | 25 | 197 | 11.3 | 22.5 | 0.00 | 0.15 | 0.13 | 86 | 999.1 |
| 20260506022147 | 25 | 193 | 12.9 | 22.5 | 0.00 | 0.15 | 0.13 | 86 | 999.0 |
| 20260506022047 | 25 | 166 | 12.9 | 22.5 | 0.00 | 0.15 | 0.13 | 86 | 999.1 |
| 20260506021946 | 25 | 158 | 11.3 | 22.5 | 0.00 | 0.15 | 0.13 | 86 | 999.1 |
| 20260506021845 | 25 | 180 | 12.9 | 22.5 | 0.00 | 0.15 | 0.13 | 86 | 999.0 |
| 20260506021747 | 25 | 172 | 12.9 | 22.5 | 0.00 | 0.15 | 0.13 | 86 | 999.0 |
| 20260506021646 | 26 | 186 | 11.3 | 22.5 | 0.00 | 0.15 | 0.13 | 86 | 999.0 |
| 20260506021547 | 26 | 149 | 14.5 | 22.5 | 0.00 | 0.15 | 0.13 | 86 | 999.0 |
| 20260506021447 | 25 | 188 | 16.1 | 22.5 | 0.00 | 0.15 | 0.13 | 86 | 999.0 |
| 20260506021346 | 25 | 166 | 14.5 | 22.5 | 0.00 | 0.15 | 0.13 | 86 | 999.0 |
| 20260506021246 | 25 | 166 | 12.9 | 22.5 | 0.00 | 0.15 | 0.13 | 86 | 999.1 |
| 20260506021145 | 25 | 152 | 14.5 | 24.1 | 0.00 | 0.15 | 0.13 | 86 | 999.0 |
| 20260506021047 | 25 | 196 | 12.9 | 24.1 | 0.00 | 0.15 | 0.13 | 86 | 999.1 |
| 20260506020946 | 25 | 165 | 9.7 | 24.1 | 0.00 | 0.15 | 0.13 | 86 | 999.1 |
| 20260506020846 | 25 | 166 | 9.7 | 30.6 | 0.00 | 0.15 | 0.13 | 86 | 999.0 |
| 20260506020745 | 26 | 171 | 11.3 | 30.6 | 0.00 | 0.15 | 0.13 | 86 | 999.0 |
| 20260506020647 | 25 | 161 | 9.7 | 30.6 | 0.00 | 0.15 | 0.13 | 86 | 998.9 |
| 20260506020545 | 25 | 206 | 9.7 | 30.6 | 0.00 | 0.15 | 0.13 | 86 | 998.9 |
| 20260506020446 | 25 | 193 | 11.3 | 30.6 | 0.00 | 0.15 | 0.13 | 86 | 998.9 |
| 20260506020346 | 25 | 199 | 12.9 | 30.6 | 0.00 | 0.15 | 0.13 | 86 | 998.9 |
| 20260506020246 | 25 | 173 | 12.9 | 30.6 | 0.00 | 0.15 | 0.13 | 86 | 998.9 |
| 20260506020145 | 25 | 183 | 14.5 | 30.6 | 0.00 | 0.15 | 0.13 | 86 | 998.9 |
| 20260506020046 | 25 | 179 | 17.7 | 30.6 | 0.00 | 0.15 | 0.13 | 86 | 998.8 |
| 20260506015945 | 25 | 180 | 17.7 | 30.6 | 0.00 | 0.15 | 0.13 | 86 | 998.9 |
| 20260506015846 | 25 | 189 | 17.7 | 27.4 | 0.00 | 0.15 | 0.13 | 86 | 998.9 |
| 20260506015746 | 25 | 195 | 16.1 | 25.7 | 0.00 | 0.15 | 0.13 | 86 | 998.8 |
| 20260506015646 | 25 | 189 | 12.9 | 25.7 | 0.00 | 0.15 | 0.13 | 86 | 998.8 |
| 20260506015545 | 25 | 210 | 11.3 | 25.7 | 0.00 | 0.15 | 0.13 | 86 | 998.7 |
| 20260506015445 | 25 | 168 | 14.5 | 25.7 | 0.00 | 0.15 | 0.13 | 86 | 998.7 |
| 20260506015347 | 25 | 176 | 16.1 | 25.7 | 0.00 | 0.15 | 0.13 | 86 | 998.7 |
| 20260506015245 | 25 | 182 | 14.5 | 25.7 | 0.00 | 0.15 | 0.13 | 86 | 998.8 |
| 20260506015145 | 25 | 164 | 11.3 | 19.3 | 0.00 | 0.15 | 0.13 | 86 | 998.7 |
| 20260506015045 | 25 | 154 | 12.9 | 19.3 | 0.00 | 0.15 | 0.13 | 86 | 998.7 |
| 20260506014946 | 25 | 176 | 12.9 | 19.3 | 0.00 | 0.15 | 0.13 | 86 | 998.7 |
| 20260506014846 | 25 | 190 | 12.9 | 19.3 | 0.00 | 0.15 | 0.13 | 86 | 998.6 |
| 20260506014745 | 26 | 190 | 12.9 | 19.3 | 0.00 | 0.15 | 0.13 | 86 | 998.6 |
| 20260506014646 | 26 | 175 | 12.9 | 19.3 | 0.00 | 0.15 | 0.13 | 86 | 998.7 |
| 20260506014545 | 26 | 182 | 11.3 | 19.3 | 0.00 | 0.15 | 0.13 | 86 | 998.6 |
| 20260506014445 | 26 | 185 | 11.3 | 19.3 | 0.00 | 0.15 | 0.13 | 86 | 998.6 |
| 20260506014345 | 26 | 185 | 12.9 | 19.3 | 0.00 | 0.15 | 0.13 | 86 | 998.6 |
| 20260506014246 | 26 | 180 | 11.3 | 17.7 | 0.00 | 0.15 | 0.13 | 86 | 998.6 |
| 20260506014145 | 26 | 193 | 11.3 | 17.7 | 0.00 | 0.15 | 0.13 | 86 | 998.6 |
| 20260506014046 | 26 | 214 | 11.3 | 17.7 | 0.00 | 0.15 | 0.13 | 86 | 998.6 |
| 20260506013946 | 26 | 197 | 11.3 | 17.7 | 0.00 | 0.15 | 0.13 | 86 | 998.6 |
| 20260506013845 | 26 | 221 | 11.3 | 17.7 | 0.00 | 0.15 | 0.13 | 86 | 998.6 |
| 20260506013745 | 26 | 200 | 11.3 | 17.7 | 0.00 | 0.18 | 0.13 | 86 | 998.6 |
| 20260506013644 | 26 | 204 | 9.7 | 17.7 | 0.00 | 0.18 | 0.13 | 85 | 998.6 |
| 20260506013546 | 26 | 200 | 11.3 | 19.3 | 0.00 | 0.18 | 0.13 | 85 | 998.6 |
| 20260506013445 | 26 | 200 | 11.3 | 19.3 | 0.00 | 0.18 | 0.13 | 85 | 998.6 |
| 20260506013345 | 26 | 213 | 9.7 | 19.3 | 0.00 | 0.18 | 0.13 | 85 | 998.7 |
| 20260506013246 | 26 | 223 | 8.0 | 20.9 | 0.00 | 0.18 | 0.13 | 85 | 998.6 |
| 20260506013145 | 26 | 216 | 8.0 | 20.9 | 0.00 | 0.18 | 0.13 | 85 | 998.6 |
| 20260506013045 | 26 | 202 | 9.7 | 20.9 | 0.00 | 0.18 | 0.13 | 85 | 998.6 |
| 20260506012947 | 26 | 193 | 9.7 | 20.9 | 0.00 | 0.18 | 0.13 | 85 | 998.6 |
| 20260506012846 | 26 | 196 | 9.7 | 20.9 | 0.00 | 0.18 | 0.13 | 85 | 998.6 |
| 20260506012745 | 26 | 179 | 12.9 | 20.9 | 0.00 | 0.18 | 0.13 | 85 | 998.7 |
| 20260506012644 | 26 | 213 | 12.9 | 20.9 | 0.00 | 0.18 | 0.13 | 85 | 998.6 |
| 20260506012546 | 26 | 220 | 11.3 | 20.9 | 0.00 | 0.18 | 0.13 | 85 | 998.6 |
| 20260506012445 | 26 | 189 | 11.3 | 20.9 | 0.00 | 0.18 | 0.13 | 85 | 998.6 |
| 20260506012344 | 26 | 179 | 12.9 | 20.9 | 0.00 | 0.18 | 0.13 | 85 | 998.5 |
| 20260506012244 | 26 | 182 | 12.9 | 20.9 | 0.00 | 0.18 | 0.13 | 85 | 998.5 |
| 20260506012146 | 26 | 195 | 12.9 | 20.9 | 0.00 | 0.18 | 0.13 | 85 | 998.4 |
| 20260506012045 | 26 | 195 | 11.3 | 20.9 | 0.00 | 0.18 | 0.13 | 85 | 998.4 |
| 20260506011944 | 26 | 202 | 12.9 | 20.9 | 0.00 | 0.18 | 0.13 | 85 | 998.4 |
| 20260506011846 | 26 | 190 | 12.9 | 20.9 | 0.00 | 0.18 | 0.13 | 85 | 998.5 |
| 20260506011745 | 26 | 169 | 12.9 | 19.3 | 0.00 | 0.18 | 0.13 | 85 | 998.3 |
| 20260506011644 | 26 | 182 | 11.3 | 20.9 | 0.00 | 0.18 | 0.13 | 85 | 998.4 |
| 20260506011544 | 26 | 186 | 9.7 | 20.9 | 0.00 | 0.18 | 0.13 | 85 | 998.4 |
| 20260506011445 | 26 | 196 | 9.7 | 20.9 | 0.00 | 0.18 | 0.13 | 85 | 998.3 |
| 20260506011345 | 26 | 179 | 9.7 | 20.9 | 0.00 | 0.18 | 0.13 | 85 | 998.2 |
| 20260506011245 | 26 | 179 | 9.7 | 20.9 | 0.00 | 0.18 | 0.13 | 85 | 998.2 |
| 20260506011145 | 26 | 180 | 11.3 | 20.9 | 0.00 | 0.18 | 0.13 | 85 | 998.3 |
| 20260506011045 | 26 | 199 | 9.7 | 20.9 | 0.00 | 0.18 | 0.13 | 85 | 998.3 |
| 20260506010944 | 26 | 197 | 9.7 | 20.9 | 0.00 | 0.18 | 0.13 | 85 | 998.3 |
| 20260506010844 | 26 | 185 | 12.9 | 20.9 | 0.00 | 0.18 | 0.13 | 85 | 998.3 |
| 20260506010745 | 26 | 168 | 14.5 | 20.9 | 0.00 | 0.18 | 0.13 | 85 | 998.3 |
| 20260506010644 | 26 | 195 | 14.5 | 20.9 | 0.00 | 0.18 | 0.13 | 84 | 998.3 |
| 20260506010544 | 26 | 158 | 14.5 | 20.9 | 0.00 | 0.18 | 0.13 | 84 | 998.3 |
| 20260506010444 | 26 | 188 | 12.9 | 19.3 | 0.00 | 0.18 | 0.13 | 84 | 998.3 |
| 20260506010344 | 26 | 190 | 11.3 | 17.7 | 0.00 | 0.18 | 0.13 | 84 | 998.2 |
| 20260506010244 | 26 | 209 | 12.9 | 17.7 | 0.00 | 0.18 | 0.13 | 84 | 998.2 |
| 20260506010145 | 26 | 196 | 11.3 | 20.9 | 0.00 | 0.18 | 0.13 | 84 | 998.2 |
| 20260506010046 | 26 | 195 | 9.7 | 20.9 | 0.00 | 0.18 | 0.13 | 84 | 998.2 |
| 20260506005944 | 26 | 188 | 11.3 | 20.9 | 0.00 | 0.18 | 0.13 | 84 | 998.2 |
| 20260506005844 | 26 | 182 | 12.9 | 20.9 | 0.00 | 0.18 | 0.13 | 84 | 998.3 |
| 20260506005745 | 26 | 185 | 11.3 | 20.9 | 0.00 | 0.18 | 0.13 | 84 | 998.2 |
| 20260506005644 | 26 | 199 | 11.3 | 20.9 | 0.00 | 0.18 | 0.13 | 84 | 998.3 |
| 20260506005544 | 26 | 185 | 12.9 | 20.9 | 0.00 | 0.18 | 0.13 | 84 | 998.1 |
| 20260506005445 | 26 | 176 | 11.3 | 25.7 | 0.00 | 0.18 | 0.13 | 84 | 998.1 |
| 20260506005344 | 26 | 193 | 12.9 | 25.7 | 0.00 | 0.18 | 0.13 | 84 | 998.1 |
| 20260506005244 | 26 | 183 | 12.9 | 25.7 | 0.00 | 0.18 | 0.13 | 84 | 998.1 |
| 20260506005144 | 26 | 179 | 12.9 | 25.7 | 0.00 | 0.18 | 0.13 | 84 | 998.1 |
| 20260506005045 | 26 | 178 | 14.5 | 25.7 | 0.00 | 0.18 | 0.13 | 84 | 998.1 |
| 20260506004943 | 26 | 180 | 14.5 | 25.7 | 0.00 | 0.18 | 0.13 | 84 | 998.1 |
| 20260506004844 | 26 | 188 | 14.5 | 25.7 | 0.00 | 0.18 | 0.13 | 84 | 998.0 |
| 20260506004746 | 26 | 180 | 12.9 | 25.7 | 0.00 | 0.18 | 0.13 | 84 | 998.1 |
| 20260506004645 | 26 | 176 | 14.5 | 25.7 | 0.00 | 0.18 | 0.13 | 84 | 998.1 |
| 20260506004544 | 26 | 197 | 16.1 | 25.7 | 0.00 | 0.18 | 0.13 | 84 | 998.2 |
| 20260506004445 | 26 | 202 | 12.9 | 22.5 | 0.00 | 0.18 | 0.13 | 84 | 998.1 |
| 20260506004345 | 26 | 175 | 11.3 | 17.7 | 0.00 | 0.18 | 0.13 | 84 | 998.2 |
| 20260506004244 | 26 | 189 | 11.3 | 19.3 | 0.00 | 0.18 | 0.13 | 84 | 998.1 |
| 20260506004143 | 26 | 185 | 11.3 | 19.3 | 0.00 | 0.18 | 0.13 | 84 | 998.1 |
| 20260506004044 | 26 | 180 | 9.7 | 19.3 | 0.00 | 0.18 | 0.13 | 84 | 998.1 |
| 20260506003944 | 26 | 193 | 9.7 | 22.5 | 0.00 | 0.18 | 0.13 | 84 | 998.1 |
| 20260506003844 | 26 | 176 | 9.7 | 22.5 | 0.00 | 0.18 | 0.13 | 84 | 998.0 |
| 20260506003744 | 26 | 199 | 8.0 | 22.5 | 0.00 | 0.18 | 0.13 | 84 | 998.0 |
| 20260506003644 | 26 | 193 | 8.0 | 24.1 | 0.00 | 0.18 | 0.13 | 84 | 998.0 |
| 20260506003543 | 26 | 189 | 9.7 | 24.1 | 0.00 | 0.18 | 0.13 | 84 | 997.9 |
| 20260506003443 | 26 | 183 | 11.3 | 24.1 | 0.00 | 0.18 | 0.13 | 84 | 997.9 |
| 20260506003341 | 26 | 217 | 12.9 | 24.1 | 0.00 | 0.18 | 0.13 | 84 | 998.0 |
| 20260506003240 | 26 | 182 | 12.9 | 24.1 | 0.00 | 0.18 | 0.13 | 84 | 998.0 |
| 20260506003138 | 26 | 178 | 14.5 | 24.1 | 0.00 | 0.18 | 0.13 | 83 | 998.0 |
| 20260506003038 | 26 | 192 | 14.5 | 24.1 | 0.00 | 0.18 | 0.13 | 84 | 998.0 |
| 20260506002934 | 26 | 171 | 12.9 | 24.1 | 0.00 | 0.18 | 0.13 | 83 | 998.0 |
| 20260506002834 | 26 | 165 | 14.5 | 24.1 | 0.00 | 0.18 | 0.13 | 83 | 998.0 |
| 20260506002731 | 26 | 180 | 16.1 | 24.1 | 0.00 | 0.18 | 0.13 | 83 | 998.0 |
| 20260506002631 | 26 | 180 | 16.1 | 24.1 | 0.00 | 0.18 | 0.13 | 83 | 998.0 |
| 20260506002532 | 26 | 185 | 16.1 | 24.1 | 0.00 | 0.18 | 0.13 | 83 | 998.1 |
| 20260506002431 | 26 | 176 | 14.5 | 24.1 | 0.00 | 0.18 | 0.13 | 83 | 998.1 |
| 20260506002331 | 26 | 178 | 9.7 | 24.1 | 0.00 | 0.18 | 0.13 | 84 | 998.1 |
| 20260506002231 | 26 | 189 | 11.3 | 24.1 | 0.00 | 0.18 | 0.13 | 84 | 998.0 |
| 20260506002132 | 26 | 202 | 12.9 | 24.1 | 0.00 | 0.18 | 0.13 | 83 | 998.1 |
| 20260506002031 | 26 | 190 | 11.3 | 24.1 | 0.00 | 0.18 | 0.13 | 83 | 998.1 |
| 20260506001931 | 26 | 183 | 12.9 | 24.1 | 0.00 | 0.18 | 0.13 | 83 | 998.1 |
| 20260506001832 | 26 | 220 | 11.3 | 24.1 | 0.00 | 0.18 | 0.13 | 83 | 998.1 |
| 20260506001731 | 26 | 197 | 9.7 | 24.1 | 0.00 | 0.18 | 0.13 | 83 | 998.0 |
| 20260506001630 | 26 | 171 | 11.3 | 25.7 | 0.00 | 0.18 | 0.13 | 83 | 998.1 |
| 20260506001532 | 26 | 188 | 14.5 | 25.7 | 0.00 | 0.18 | 0.13 | 83 | 998.2 |
| 20260506001432 | 26 | 183 | 12.9 | 29.0 | 0.00 | 0.18 | 0.13 | 83 | 998.2 |
| 20260506001331 | 26 | 162 | 9.7 | 29.0 | 0.00 | 0.18 | 0.13 | 83 | 998.0 |
| 20260506001231 | 26 | 171 | 9.7 | 29.0 | 0.00 | 0.18 | 0.13 | 83 | 998.0 |
| 20260506001132 | 26 | 196 | 11.3 | 29.0 | 0.00 | 0.18 | 0.13 | 83 | 998.1 |
| 20260506001032 | 26 | 185 | 14.5 | 29.0 | 0.00 | 0.18 | 0.13 | 83 | 998.0 |
| 20260506000931 | 26 | 164 | 12.9 | 29.0 | 0.00 | 0.18 | 0.13 | 83 | 998.1 |
| 20260506000832 | 26 | 182 | 14.5 | 29.0 | 0.00 | 0.18 | 0.13 | 83 | 998.1 |
| 20260506000731 | 26 | 179 | 17.7 | 29.0 | 0.00 | 0.18 | 0.13 | 83 | 998.1 |
| 20260506000631 | 26 | 183 | 17.7 | 29.0 | 0.00 | 0.18 | 0.13 | 83 | 998.0 |
| 20260506000532 | 26 | 193 | 17.7 | 29.0 | 0.00 | 0.18 | 0.13 | 83 | 998.0 |
| 20260506000432 | 26 | 165 | 16.1 | 29.0 | 0.00 | 0.18 | 0.13 | 83 | 998.0 |
| 20260506000331 | 26 | 180 | 12.9 | 29.0 | 0.00 | 0.18 | 0.13 | 83 | 997.9 |
| 20260506000231 | 26 | 175 | 16.1 | 29.0 | 0.00 | 0.18 | 0.13 | 83 | 997.9 |
| 20260506000133 | 27 | 189 | 14.5 | 29.0 | 0.00 | 0.18 | 0.13 | 83 | 998.0 |
| 20260506000032 | 26 | 192 | 11.3 | 27.4 | 0.00 | 0.18 | 0.13 | 83 | 997.8 |
| 20260505235931 | 26 | 185 | 16.1 | 27.4 | 0.00 | 0.18 | 0.13 | 83 | 997.8 |
| 20260505235832 | 27 | 188 | 19.3 | 27.4 | 0.00 | 0.18 | 0.13 | 83 | 997.8 |
| 20260505235733 | 27 | 192 | 19.3 | 29.0 | 0.00 | 0.18 | 0.13 | 83 | 998.0 |
| 20260505235631 | 27 | 188 | 14.5 | 29.0 | 0.00 | 0.18 | 0.13 | 83 | 997.7 |
| 20260505235531 | 27 | 188 | 12.9 | 29.0 | 0.00 | 0.18 | 0.13 | 83 | 997.8 |
| 20260505235431 | 27 | 189 | 12.9 | 30.6 | 0.00 | 0.18 | 0.13 | 83 | 997.8 |
| 20260505235331 | 27 | 188 | 12.9 | 30.6 | 0.00 | 0.18 | 0.13 | 83 | 997.9 |
| 20260505235230 | 27 | 176 | 12.9 | 30.6 | 0.00 | 0.18 | 0.13 | 83 | 997.8 |
| 20260505235132 | 27 | 214 | 14.5 | 30.6 | 0.00 | 0.18 | 0.13 | 82 | 997.8 |
| 20260505235031 | 27 | 207 | 16.1 | 30.6 | 0.00 | 0.20 | 0.13 | 82 | 997.9 |
| 20260505234930 | 27 | 169 | 20.9 | 30.6 | 0.00 | 0.20 | 0.13 | 82 | 998.0 |
| 20260505234828 | 27 | 173 | 19.3 | 30.6 | 0.00 | 0.20 | 0.13 | 82 | 997.9 |
| 20260505234727 | 27 | 173 | 19.3 | 30.6 | 0.00 | 0.20 | 0.13 | 82 | 998.0 |
| 20260505234626 | 27 | 188 | 19.3 | 30.6 | 0.00 | 0.20 | 0.13 | 82 | 998.0 |
| 20260505234524 | 27 | 188 | 17.7 | 30.6 | 0.00 | 0.20 | 0.13 | 82 | 998.0 |
| 20260505234423 | 27 | 190 | 17.7 | 30.6 | 0.00 | 0.20 | 0.13 | 82 | 998.0 |
| 20260505234321 | 27 | 196 | 19.3 | 30.6 | 0.00 | 0.20 | 0.13 | 82 | 998.0 |
| 20260505234220 | 27 | 172 | 19.3 | 30.6 | 0.00 | 0.20 | 0.13 | 82 | 998.0 |
| 20260505234118 | 27 | 175 | 19.3 | 30.6 | 0.00 | 0.20 | 0.13 | 82 | 998.0 |
| 20260505234015 | 27 | 169 | 17.7 | 30.6 | 0.00 | 0.20 | 0.13 | 81 | 998.0 |
| 20260505233914 | 27 | 189 | 17.7 | 30.6 | 0.00 | 0.20 | 0.13 | 81 | 998.0 |
| 20260505233813 | 27 | 175 | 17.7 | 30.6 | 0.00 | 0.20 | 0.13 | 81 | 998.0 |
| 20260505233712 | 27 | 155 | 16.1 | 30.6 | 0.00 | 0.20 | 0.13 | 81 | 997.8 |
| 20260505233610 | 27 | 176 | 17.7 | 30.6 | 0.00 | 0.20 | 0.13 | 81 | 997.9 |
| 20260505233509 | 27 | 176 | 19.3 | 30.6 | 0.00 | 0.20 | 0.13 | 81 | 997.9 |
| 20260505233407 | 27 | 212 | 19.3 | 27.4 | 0.00 | 0.20 | 0.13 | 81 | 997.9 |
| 20260505233306 | 27 | 237 | 20.9 | 27.4 | 0.00 | 0.20 | 0.13 | 81 | 997.9 |
| 20260505233204 | 27 | 0 | 16.1 | 24.1 | 0.00 | 0.20 | 0.13 | 81 | 997.8 |
| 20260505233103 | 27 | 0 | 16.1 | 25.7 | 0.00 | 0.20 | 0.13 | 81 | 997.8 |
| 20260505233003 | 27 | 0 | 16.1 | 25.7 | 0.00 | 0.20 | 0.13 | 81 | 997.8 |
| 20260505232902 | 27 | 0 | 16.1 | 25.7 | 0.00 | 0.20 | 0.13 | 81 | 997.7 |
| 20260505232803 | 27 | 0 | 14.5 | 25.7 | 0.00 | 0.20 | 0.13 | 81 | 997.8 |
| 20260505232702 | 27 | 0 | 14.5 | 25.7 | 0.00 | 0.20 | 0.13 | 81 | 997.7 |
| 20260505232602 | 27 | 0 | 14.5 | 25.7 | 0.00 | 0.20 | 0.13 | 80 | 997.6 |
| 20260505232502 | 27 | 0 | 14.5 | 25.7 | 0.00 | 0.20 | 0.13 | 80 | 997.7 |
| 20260505232403 | 27 | 0 | 12.9 | 25.7 | 0.00 | 0.20 | 0.13 | 80 | 997.7 |
| 20260505232305 | 27 | 0 | 14.5 | 25.7 | 0.00 | 0.20 | 0.13 | 80 | 997.7 |
| 20260505232203 | 27 | 0 | 16.1 | 25.7 | 0.00 | 0.20 | 0.13 | 80 | 997.6 |
| 20260505232103 | 27 | 0 | 17.7 | 25.7 | 0.00 | 0.20 | 0.13 | 80 | 997.6 |
| 20260505232003 | 27 | 0 | 17.7 | 25.7 | 0.00 | 0.20 | 0.13 | 80 | 997.7 |
| 20260505231900 | 27 | 0 | 14.5 | 20.9 | 0.00 | 0.20 | 0.13 | 80 | 997.6 |
| 20260505231755 | 27 | 0 | 11.3 | 24.1 | 0.00 | 0.20 | 0.13 | 80 | 997.7 |
| 20260505231655 | 27 | 0 | 12.9 | 24.1 | 0.00 | 0.20 | 0.13 | 80 | 997.6 |
| 20260505231550 | 27 | 0 | 12.9 | 27.4 | 0.00 | 0.20 | 0.13 | 80 | 997.7 |
| 20260505231450 | 27 | 0 | 9.7 | 27.4 | 0.00 | 0.20 | 0.13 | 80 | 997.7 |
| 20260505231347 | 27 | 0 | 9.7 | 27.4 | 0.00 | 0.20 | 0.13 | 80 | 997.7 |
| 20260505231246 | 27 | 0 | 11.3 | 27.4 | 0.00 | 0.20 | 0.13 | 80 | 997.7 |
| 20260505231144 | 27 | 0 | 12.9 | 27.4 | 0.00 | 0.20 | 0.13 | 80 | 997.8 |
| 20260505231043 | 27 | 0 | 12.9 | 27.4 | 0.00 | 0.20 | 0.13 | 80 | 997.7 |
| 20260505230942 | 27 | 0 | 14.5 | 27.4 | 0.00 | 0.20 | 0.13 | 80 | 997.6 |
| 20260505230841 | 27 | 0 | 14.5 | 27.4 | 0.00 | 0.20 | 0.13 | 80 | 997.8 |
| 20260505230742 | 27 | 0 | 17.7 | 27.4 | 0.00 | 0.20 | 0.13 | 80 | 997.7 |
| 20260505230643 | 27 | 0 | 17.7 | 27.4 | 0.00 | 0.20 | 0.13 | 80 | 997.7 |
| 20260505230541 | 27 | 0 | 12.9 | 22.5 | 0.00 | 0.20 | 0.13 | 80 | 997.7 |
| 20260505230442 | 27 | 0 | 9.7 | 22.5 | 0.00 | 0.20 | 0.13 | 80 | 997.7 |
| 20260505230341 | 27 | 0 | 12.9 | 22.5 | 0.00 | 0.20 | 0.13 | 80 | 997.7 |
| 20260505230241 | 27 | 0 | 12.9 | 22.5 | 0.00 | 0.20 | 0.13 | 80 | 997.7 |
| 20260505230141 | 27 | 0 | 8.0 | 22.5 | 0.00 | 0.20 | 0.13 | 81 | 997.7 |
| 20260505230042 | 27 | 0 | 8.0 | 22.5 | 0.00 | 0.20 | 0.13 | 81 | 997.7 |
| 20260505225942 | 27 | 0 | 8.0 | 22.5 | 0.00 | 0.20 | 0.13 | 81 | 997.7 |
| 20260505225841 | 27 | 0 | 9.7 | 22.5 | 0.00 | 0.20 | 0.13 | 81 | 997.7 |
| 20260505225742 | 27 | 0 | 11.3 | 22.5 | 0.00 | 0.20 | 0.13 | 81 | 997.8 |
| 20260505225642 | 27 | 0 | 12.9 | 22.5 | 0.00 | 0.20 | 0.13 | 81 | 997.7 |
| 20260505225542 | 27 | 0 | 14.5 | 22.5 | 0.00 | 0.20 | 0.13 | 81 | 997.8 |
| 20260505225441 | 27 | 0 | 12.9 | 22.5 | 0.00 | 0.20 | 0.13 | 81 | 997.8 |
| 20260505225341 | 27 | 0 | 12.9 | 22.5 | 0.00 | 0.20 | 0.13 | 81 | 997.8 |
| 20260505225242 | 27 | 0 | 14.5 | 22.5 | 0.00 | 0.20 | 0.13 | 81 | 997.8 |
| 20260505225141 | 27 | 183 | 12.9 | 24.1 | 0.00 | 0.20 | 0.13 | 81 | 998.0 |
| 20260505225041 | 27 | 188 | 12.9 | 29.0 | 0.00 | 0.20 | 0.13 | 81 | 997.9 |
| 20260505224942 | 27 | 203 | 14.5 | 29.0 | 0.00 | 0.20 | 0.13 | 81 | 998.0 |
| 20260505224841 | 27 | 185 | 11.3 | 29.0 | 0.00 | 0.20 | 0.13 | 81 | 997.9 |
| 20260505224741 | 27 | 188 | 9.7 | 29.0 | 0.00 | 0.20 | 0.13 | 81 | 998.0 |
| 20260505224641 | 27 | 230 | 12.9 | 29.0 | 0.00 | 0.20 | 0.13 | 81 | 998.0 |
| 20260505224543 | 27 | 172 | 14.5 | 29.0 | 0.00 | 0.20 | 0.13 | 80 | 998.0 |
| 20260505224441 | 27 | 171 | 12.9 | 29.0 | 0.00 | 0.20 | 0.13 | 80 | 998.0 |
| 20260505224341 | 27 | 202 | 12.9 | 29.0 | 0.00 | 0.20 | 0.13 | 80 | 997.9 |
| 20260505224243 | 27 | 197 | 16.1 | 29.0 | 0.00 | 0.20 | 0.13 | 80 | 997.9 |
| 20260505224142 | 27 | 188 | 17.7 | 29.0 | 0.00 | 0.20 | 0.13 | 80 | 998.0 |
| 20260505224041 | 27 | 169 | 16.1 | 27.4 | 0.00 | 0.20 | 0.13 | 80 | 997.9 |
| 20260505223941 | 27 | 185 | 16.1 | 27.4 | 0.00 | 0.20 | 0.13 | 80 | 998.0 |
| 20260505223842 | 27 | 203 | 17.7 | 27.4 | 0.00 | 0.20 | 0.13 | 80 | 997.9 |
| 20260505223742 | 27 | 0 | 16.1 | 27.4 | 0.00 | 0.20 | 0.13 | 80 | 997.9 |
| 20260505223641 | 27 | 0 | 17.7 | 27.4 | 0.00 | 0.20 | 0.13 | 80 | 997.9 |
| 20260505223542 | 27 | 0 | 16.1 | 27.4 | 0.00 | 0.20 | 0.13 | 80 | 997.9 |
| 20260505223441 | 27 | 0 | 12.9 | 25.7 | 0.00 | 0.20 | 0.13 | 80 | 997.8 |
| 20260505223341 | 27 | 0 | 11.3 | 25.7 | 0.00 | 0.20 | 0.13 | 80 | 997.8 |
| 20260505223242 | 27 | 0 | 11.3 | 27.4 | 0.00 | 0.20 | 0.13 | 79 | 997.7 |
| 20260505223141 | 27 | 0 | 11.3 | 27.4 | 0.00 | 0.20 | 0.13 | 79 | 997.7 |
| 20260505223041 | 27 | 0 | 9.7 | 27.4 | 0.00 | 0.20 | 0.13 | 79 | 997.7 |
| 20260505222940 | 27 | 0 | 9.7 | 27.4 | 0.00 | 0.20 | 0.13 | 79 | 997.8 |
| 20260505222842 | 27 | 0 | 11.3 | 27.4 | 0.00 | 0.20 | 0.13 | 79 | 997.7 |
| 20260505222740 | 27 | 0 | 12.9 | 27.4 | 0.00 | 0.20 | 0.13 | 79 | 997.8 |
| 20260505222641 | 27 | 0 | 14.5 | 27.4 | 0.00 | 0.20 | 0.13 | 79 | 997.8 |
| 20260505222540 | 27 | 0 | 14.5 | 27.4 | 0.00 | 0.20 | 0.13 | 79 | 997.8 |
| 20260505222441 | 28 | 0 | 16.1 | 27.4 | 0.00 | 0.20 | 0.13 | 79 | 997.9 |
| 20260505222340 | 28 | 0 | 17.7 | 27.4 | 0.00 | 0.20 | 0.13 | 79 | 997.9 |
| 20260505222242 | 28 | 0 | 17.7 | 27.4 | 0.00 | 0.20 | 0.13 | 79 | 998.0 |
| 20260505222142 | 28 | 0 | 17.7 | 27.4 | 0.00 | 0.20 | 0.13 | 79 | 998.0 |
| 20260505222040 | 28 | 0 | 16.1 | 27.4 | 0.00 | 0.20 | 0.13 | 79 | 998.0 |
| 20260505221941 | 28 | 0 | 17.7 | 27.4 | 0.00 | 0.20 | 0.13 | 79 | 998.0 |
| 20260505221840 | 28 | 0 | 17.7 | 27.4 | 0.00 | 0.20 | 0.13 | 79 | 998.0 |
| 20260505221741 | 28 | 0 | 16.1 | 25.7 | 0.00 | 0.20 | 0.13 | 79 | 997.9 |
| 20260505221640 | 28 | 0 | 11.3 | 25.7 | 0.00 | 0.20 | 0.13 | 80 | 997.9 |
| 20260505221540 | 28 | 0 | 9.7 | 22.5 | 0.00 | 0.20 | 0.13 | 79 | 997.9 |
| 20260505221442 | 28 | 0 | 12.9 | 22.5 | 0.00 | 0.20 | 0.13 | 79 | 997.9 |
| 20260505221341 | 28 | 0 | 11.3 | 24.1 | 0.00 | 0.20 | 0.13 | 80 | 998.0 |
| 20260505221240 | 28 | 0 | 9.7 | 24.1 | 0.00 | 0.20 | 0.13 | 80 | 998.0 |
| 20260505221142 | 28 | 0 | 11.3 | 24.1 | 0.00 | 0.23 | 0.13 | 80 | 998.0 |
| 20260505221040 | 28 | 0 | 11.3 | 24.1 | 0.00 | 0.23 | 0.13 | 79 | 997.9 |
| 20260505220941 | 28 | 0 | 11.3 | 24.1 | 0.00 | 0.23 | 0.13 | 79 | 997.9 |
| 20260505220840 | 28 | 0 | 9.7 | 24.1 | 0.00 | 0.23 | 0.13 | 79 | 997.9 |
| 20260505220742 | 28 | 0 | 9.7 | 24.1 | 0.00 | 0.23 | 0.13 | 79 | 997.9 |
| 20260505220640 | 28 | 0 | 11.3 | 25.7 | 0.00 | 0.23 | 0.13 | 79 | 998.0 |
| 20260505220540 | 28 | 0 | 14.5 | 25.7 | 0.00 | 0.23 | 0.13 | 79 | 998.0 |
| 20260505220442 | 28 | 0 | 11.3 | 25.7 | 0.00 | 0.23 | 0.13 | 79 | 998.0 |
| 20260505220340 | 28 | 0 | 9.7 | 25.7 | 0.00 | 0.23 | 0.13 | 80 | 998.1 |
| 20260505220240 | 28 | 0 | 9.7 | 25.7 | 0.00 | 0.23 | 0.13 | 79 | 998.0 |
| 20260505220140 | 28 | 0 | 11.3 | 25.7 | 0.00 | 0.23 | 0.13 | 80 | 998.1 |
| 20260505220042 | 28 | 0 | 17.7 | 25.7 | 0.00 | 0.23 | 0.13 | 79 | 998.1 |
| 20260505215941 | 28 | 0 | 17.7 | 25.7 | 0.00 | 0.23 | 0.13 | 79 | 998.1 |
| 20260505215840 | 28 | 0 | 17.7 | 25.7 | 0.00 | 0.23 | 0.13 | 79 | 998.2 |
| 20260505215741 | 28 | 0 | 14.5 | 25.7 | 0.00 | 0.23 | 0.13 | 79 | 998.1 |
| 20260505215640 | 28 | 0 | 12.9 | 25.7 | 0.00 | 0.23 | 0.13 | 79 | 998.1 |
| 20260505215540 | 28 | 0 | 12.9 | 25.7 | 0.00 | 0.23 | 0.13 | 79 | 998.1 |
| 20260505215440 | 28 | 0 | 16.1 | 25.7 | 0.00 | 0.23 | 0.13 | 79 | 998.1 |
| 20260505215341 | 28 | 0 | 17.7 | 25.7 | 0.00 | 0.23 | 0.13 | 79 | 998.0 |
| 20260505215240 | 28 | 0 | 17.7 | 25.7 | 0.00 | 0.23 | 0.13 | 79 | 998.0 |
| 20260505215141 | 28 | 0 | 11.3 | 25.7 | 0.00 | 0.23 | 0.13 | 79 | 998.1 |
| 20260505215041 | 28 | 0 | 11.3 | 25.7 | 0.00 | 0.23 | 0.13 | 79 | 998.0 |
| 20260505214941 | 28 | 0 | 11.3 | 27.4 | 0.00 | 0.23 | 0.13 | 79 | 998.2 |
| 20260505214841 | 28 | 0 | 11.3 | 27.4 | 0.00 | 0.23 | 0.13 | 79 | 998.1 |
| 20260505214741 | 28 | 0 | 11.3 | 27.4 | 0.00 | 0.23 | 0.13 | 79 | 998.2 |
| 20260505214641 | 28 | 0 | 11.3 | 27.4 | 0.00 | 0.23 | 0.13 | 79 | 998.1 |
| 20260505214540 | 28 | 0 | 12.9 | 27.4 | 0.00 | 0.23 | 0.13 | 79 | 998.2 |
| 20260505214439 | 28 | 0 | 14.5 | 27.4 | 0.00 | 0.23 | 0.13 | 79 | 998.2 |
| 20260505214341 | 28 | 0 | 16.1 | 27.4 | 0.00 | 0.23 | 0.13 | 79 | 998.2 |
| 20260505214240 | 28 | 0 | 17.7 | 27.4 | 0.00 | 0.23 | 0.13 | 79 | 998.3 |
| 20260505214139 | 28 | 0 | 17.7 | 27.4 | 0.00 | 0.23 | 0.13 | 79 | 998.4 |
| 20260505214039 | 28 | 0 | 14.5 | 27.4 | 0.00 | 0.23 | 0.13 | 79 | 998.4 |
| 20260505213940 | 28 | 0 | 9.7 | 25.7 | 0.00 | 0.23 | 0.13 | 80 | 998.4 |
| 20260505213840 | 28 | 0 | 9.7 | 32.2 | 0.00 | 0.23 | 0.13 | 79 | 998.4 |
| 20260505213739 | 28 | 0 | 8.0 | 32.2 | 0.00 | 0.23 | 0.13 | 80 | 998.4 |
| 20260505213640 | 28 | 0 | 8.0 | 32.2 | 0.00 | 0.23 | 0.13 | 79 | 998.4 |
| 20260505213540 | 28 | 0 | 9.7 | 32.2 | 0.00 | 0.23 | 0.13 | 79 | 998.4 |
| 20260505213440 | 28 | 0 | 9.7 | 32.2 | 0.00 | 0.23 | 0.13 | 79 | 998.4 |
| 20260505213339 | 28 | 0 | 9.7 | 32.2 | 0.00 | 0.23 | 0.13 | 79 | 998.4 |
| 20260505213240 | 28 | 0 | 12.9 | 32.2 | 0.00 | 0.23 | 0.13 | 79 | 998.4 |
| 20260505213139 | 28 | 0 | 16.1 | 32.2 | 0.00 | 0.23 | 0.13 | 79 | 998.5 |
| 20260505213039 | 28 | 0 | 19.3 | 32.2 | 0.00 | 0.23 | 0.13 | 79 | 998.5 |
| 20260505212941 | 28 | 0 | 17.7 | 29.0 | 0.00 | 0.23 | 0.13 | 79 | 998.7 |
| 20260505212839 | 28 | 0 | 16.1 | 24.1 | 0.00 | 0.23 | 0.13 | 79 | 998.6 |
| 20260505212739 | 28 | 0 | 14.5 | 24.1 | 0.00 | 0.23 | 0.13 | 79 | 998.6 |
| 20260505212639 | 28 | 0 | 11.3 | 24.1 | 0.00 | 0.23 | 0.13 | 79 | 998.6 |
| 20260505212539 | 28 | 0 | 11.3 | 25.7 | 0.00 | 0.23 | 0.13 | 79 | 998.6 |
| 20260505212439 | 28 | 0 | 12.9 | 27.4 | 0.00 | 0.23 | 0.13 | 79 | 998.6 |
| 20260505212339 | 28 | 0 | 12.9 | 27.4 | 0.00 | 0.23 | 0.13 | 79 | 998.7 |
| 20260505212242 | 28 | 0 | 11.3 | 27.4 | 0.00 | 0.23 | 0.13 | 79 | 998.8 |
| 20260505212139 | 28 | 0 | 11.3 | 27.4 | 0.00 | 0.23 | 0.13 | 79 | 998.6 |
| 20260505212039 | 28 | 0 | 11.3 | 27.4 | 0.00 | 0.23 | 0.13 | 79 | 998.7 |
| 20260505211941 | 28 | 0 | 11.3 | 27.4 | 0.00 | 0.23 | 0.13 | 79 | 998.7 |
| 20260505211839 | 28 | 0 | 14.5 | 27.4 | 0.00 | 0.23 | 0.13 | 79 | 998.7 |
| 20260505211739 | 28 | 0 | 16.1 | 27.4 | 0.00 | 0.23 | 0.13 | 79 | 998.7 |
| 20260505211639 | 28 | 0 | 17.7 | 27.4 | 0.00 | 0.23 | 0.13 | 78 | 998.7 |
| 20260505211541 | 28 | 0 | 16.1 | 27.4 | 0.00 | 0.23 | 0.13 | 79 | 998.8 |
| 20260505211439 | 28 | 0 | 14.5 | 27.4 | 0.00 | 0.23 | 0.13 | 79 | 998.8 |
| 20260505211339 | 28 | 0 | 14.5 | 27.4 | 0.00 | 0.23 | 0.13 | 79 | 998.7 |
| 20260505211240 | 28 | 0 | 14.5 | 27.4 | 0.00 | 0.23 | 0.13 | 79 | 998.8 |
| 20260505211138 | 28 | 0 | 14.5 | 24.1 | 0.00 | 0.23 | 0.13 | 79 | 998.7 |
| 20260505211040 | 28 | 0 | 11.3 | 24.1 | 0.00 | 0.23 | 0.13 | 79 | 998.6 |
| 20260505210939 | 28 | 0 | 11.3 | 24.1 | 0.00 | 0.23 | 0.13 | 79 | 998.6 |
| 20260505210840 | 28 | 0 | 11.3 | 24.1 | 0.00 | 0.23 | 0.13 | 79 | 998.7 |
| 20260505210738 | 28 | 0 | 14.5 | 24.1 | 0.00 | 0.23 | 0.13 | 79 | 998.6 |
| 20260505210638 | 28 | 0 | 11.3 | 20.9 | 0.00 | 0.23 | 0.13 | 80 | 998.6 |
| 20260505210538 | 28 | 0 | 8.0 | 19.3 | 0.00 | 0.23 | 0.13 | 80 | 998.6 |
| 20260505210439 | 28 | 0 | 8.0 | 19.3 | 0.00 | 0.23 | 0.13 | 79 | 998.6 |
| 20260505210340 | 28 | 0 | 9.7 | 20.9 | 0.00 | 0.23 | 0.13 | 79 | 998.7 |
| 20260505210240 | 28 | 0 | 11.3 | 27.4 | 0.00 | 0.23 | 0.13 | 79 | 998.6 |
| 20260505210140 | 28 | 0 | 11.3 | 27.4 | 0.00 | 0.23 | 0.13 | 78 | 998.7 |
| 20260505210039 | 28 | 0 | 11.3 | 27.4 | 0.00 | 0.23 | 0.13 | 78 | 998.8 |
| 20260505205936 | 28 | 0 | 11.3 | 27.4 | 0.00 | 0.23 | 0.13 | 78 | 998.8 |
| 20260505205835 | 28 | 0 | 11.3 | 32.2 | 0.00 | 0.23 | 0.13 | 78 | 998.8 |
| 20260505205733 | 28 | 0 | 11.3 | 32.2 | 0.00 | 0.23 | 0.13 | 78 | 998.8 |
| 20260505205632 | 28 | 0 | 12.9 | 32.2 | 0.00 | 0.25 | 0.13 | 78 | 998.8 |
| 20260505205532 | 28 | 0 | 12.9 | 32.2 | 0.00 | 0.25 | 0.13 | 79 | 998.8 |
| 20260505205430 | 28 | 0 | 14.5 | 32.2 | 0.00 | 0.25 | 0.13 | 79 | 998.8 |
| 20260505205332 | 28 | 0 | 16.1 | 32.2 | 0.00 | 0.25 | 0.13 | 78 | 998.8 |
| 20260505205231 | 28 | 0 | 14.5 | 32.2 | 0.00 | 0.25 | 0.13 | 78 | 998.9 |
| 20260505205131 | 28 | 0 | 14.5 | 32.2 | 0.00 | 0.25 | 0.13 | 78 | 998.8 |
| 20260505205031 | 28 | 0 | 16.1 | 32.2 | 0.00 | 0.25 | 0.13 | 78 | 998.9 |
| 20260505204932 | 28 | 0 | 12.9 | 32.2 | 0.00 | 0.25 | 0.13 | 79 | 998.9 |
| 20260505204831 | 28 | 0 | 11.3 | 29.0 | 0.00 | 0.25 | 0.13 | 78 | 998.8 |
| 20260505204731 | 28 | 0 | 12.9 | 29.0 | 0.00 | 0.25 | 0.13 | 78 | 998.9 |
| 20260505204632 | 28 | 0 | 14.5 | 29.0 | 0.00 | 0.25 | 0.13 | 78 | 998.8 |
| 20260505204531 | 28 | 0 | 16.1 | 29.0 | 0.00 | 0.25 | 0.13 | 78 | 999.0 |
| 20260505204431 | 28 | 0 | 16.1 | 29.0 | 0.00 | 0.25 | 0.13 | 78 | 998.9 |
| 20260505204332 | 28 | 0 | 14.5 | 25.7 | 0.00 | 0.25 | 0.13 | 78 | 998.9 |
| 20260505204232 | 28 | 0 | 11.3 | 25.7 | 0.00 | 0.25 | 0.13 | 78 | 999.0 |
| 20260505204131 | 28 | 0 | 12.9 | 25.7 | 0.00 | 0.25 | 0.13 | 78 | 998.9 |
| 20260505204031 | 28 | 0 | 14.5 | 25.7 | 0.00 | 0.25 | 0.13 | 78 | 999.0 |
| 20260505203932 | 28 | 0 | 12.9 | 25.7 | 0.00 | 0.25 | 0.13 | 79 | 999.0 |
| 20260505203831 | 28 | 0 | 12.9 | 25.7 | 0.00 | 0.25 | 0.13 | 78 | 999.0 |
| 20260505203731 | 28 | 0 | 12.9 | 25.7 | 0.00 | 0.25 | 0.13 | 78 | 999.0 |
| 20260505203633 | 28 | 0 | 14.5 | 25.7 | 0.00 | 0.25 | 0.13 | 79 | 999.0 |
| 20260505203532 | 28 | 0 | 12.9 | 25.7 | 0.00 | 0.25 | 0.13 | 79 | 999.0 |
| 20260505203432 | 28 | 0 | 12.9 | 19.3 | 0.00 | 0.25 | 0.13 | 79 | 999.0 |
| 20260505203331 | 28 | 0 | 12.9 | 19.3 | 0.00 | 0.25 | 0.13 | 79 | 999.1 |
| 20260505203232 | 28 | 0 | 11.3 | 20.9 | 0.00 | 0.25 | 0.13 | 79 | 999.1 |
| 20260505203131 | 28 | 0 | 11.3 | 20.9 | 0.00 | 0.25 | 0.13 | 79 | 999.2 |
| 20260505203030 | 28 | 0 | 11.3 | 25.7 | 0.00 | 0.25 | 0.13 | 79 | 999.2 |
| 20260505202932 | 28 | 0 | 11.3 | 25.7 | 0.00 | 0.25 | 0.13 | 79 | 999.2 |
| 20260505202831 | 28 | 0 | 12.9 | 25.7 | 0.00 | 0.25 | 0.13 | 79 | 999.3 |
| 20260505202731 | 28 | 0 | 12.9 | 25.7 | 0.00 | 0.25 | 0.13 | 79 | 999.2 |
| 20260505202631 | 28 | 0 | 12.9 | 25.7 | 0.00 | 0.25 | 0.13 | 79 | 999.2 |
| 20260505202531 | 28 | 0 | 11.3 | 25.7 | 0.00 | 0.25 | 0.13 | 79 | 999.2 |
| 20260505202431 | 28 | 0 | 14.5 | 25.7 | 0.00 | 0.25 | 0.13 | 79 | 999.2 |
| 20260505202331 | 28 | 0 | 14.5 | 25.7 | 0.00 | 0.25 | 0.13 | 79 | 999.3 |
| 20260505202232 | 28 | 0 | 16.1 | 25.7 | 0.00 | 0.25 | 0.13 | 79 | 999.2 |
| 20260505202131 | 28 | 0 | 14.5 | 25.7 | 0.00 | 0.25 | 0.13 | 79 | 999.2 |
| 20260505202030 | 28 | 0 | 11.3 | 25.7 | 0.00 | 0.25 | 0.13 | 80 | 999.2 |
| 20260505201932 | 28 | 0 | 12.9 | 25.7 | 0.00 | 0.25 | 0.13 | 79 | 999.2 |
| 20260505201832 | 28 | 0 | 14.5 | 25.7 | 0.00 | 0.25 | 0.13 | 79 | 999.2 |
| 20260505201731 | 28 | 0 | 16.1 | 25.7 | 0.00 | 0.25 | 0.13 | 79 | 999.2 |
| 20260505201631 | 28 | 0 | 17.7 | 25.7 | 0.00 | 0.25 | 0.13 | 79 | 999.3 |
| 20260505201532 | 28 | 0 | 17.7 | 25.7 | 0.00 | 0.25 | 0.13 | 79 | 999.4 |
| 20260505201432 | 28 | 0 | 16.1 | 27.4 | 0.00 | 0.25 | 0.13 | 79 | 999.4 |
| 20260505201331 | 28 | 0 | 12.9 | 27.4 | 0.00 | 0.25 | 0.13 | 80 | 999.4 |
| 20260505201233 | 28 | 0 | 11.3 | 27.4 | 0.00 | 0.25 | 0.13 | 80 | 999.3 |
| 20260505201131 | 28 | 0 | 12.9 | 27.4 | 0.00 | 0.25 | 0.13 | 80 | 999.4 |
| 20260505201030 | 28 | 0 | 12.9 | 27.4 | 0.00 | 0.25 | 0.13 | 80 | 999.3 |
| 20260505200931 | 28 | 0 | 14.5 | 27.4 | 0.00 | 0.25 | 0.13 | 79 | 999.5 |
| 20260505200832 | 28 | 0 | 16.1 | 27.4 | 0.00 | 0.25 | 0.13 | 80 | 999.5 |
| 20260505200731 | 28 | 0 | 14.5 | 27.4 | 0.00 | 0.25 | 0.13 | 80 | 999.6 |
| 20260505200632 | 28 | 0 | 16.1 | 27.4 | 0.00 | 0.25 | 0.13 | 79 | 999.5 |
| 20260505200532 | 28 | 0 | 16.1 | 27.4 | 0.00 | 0.25 | 0.13 | 79 | 999.6 |
| 20260505200432 | 28 | 0 | 14.5 | 22.5 | 0.00 | 0.25 | 0.13 | 79 | 999.5 |
| 20260505200331 | 28 | 0 | 11.3 | 20.9 | 0.00 | 0.25 | 0.13 | 80 | 999.5 |
| 20260505200233 | 28 | 0 | 8.0 | 20.9 | 0.00 | 0.25 | 0.13 | 80 | 999.5 |
| 20260505200131 | 28 | 0 | 8.0 | 20.9 | 0.00 | 0.25 | 0.13 | 80 | 999.5 |
| 20260505200031 | 28 | 0 | 11.3 | 20.9 | 0.00 | 0.25 | 0.13 | 80 | 999.6 |
| 20260505195932 | 28 | 0 | 14.5 | 20.9 | 0.00 | 0.25 | 0.13 | 80 | 999.7 |
| 20260505195832 | 28 | 0 | 11.3 | 20.9 | 0.00 | 0.25 | 0.13 | 80 | 999.6 |
| 20260505195731 | 28 | 0 | 12.9 | 20.9 | 0.00 | 0.25 | 0.13 | 80 | 999.7 |
| 20260505195631 | 28 | 0 | 11.3 | 20.9 | 0.00 | 0.25 | 0.13 | 80 | 999.7 |
| 20260505195533 | 28 | 0 | 8.0 | 19.3 | 0.00 | 0.25 | 0.13 | 80 | 999.7 |
| 20260505195432 | 28 | 0 | 9.7 | 19.3 | 0.00 | 0.25 | 0.13 | 80 | 999.8 |
| 20260505195330 | 28 | 0 | 9.7 | 19.3 | 0.00 | 0.25 | 0.13 | 80 | 999.8 |
| 20260505195230 | 28 | 0 | 11.3 | 25.7 | 0.00 | 0.25 | 0.13 | 80 | 999.9 |
| 20260505195128 | 28 | 0 | 11.3 | 25.7 | 0.00 | 0.25 | 0.13 | 80 | 999.9 |
| 20260505195026 | 28 | 0 | 12.9 | 25.7 | 0.00 | 0.25 | 0.13 | 80 | 999.8 |
| 20260505194925 | 28 | 0 | 9.7 | 25.7 | 0.00 | 0.25 | 0.13 | 81 | 999.8 |
| 20260505194823 | 28 | 0 | 9.7 | 25.7 | 0.00 | 0.25 | 0.13 | 81 | 999.8 |
| 20260505194721 | 28 | 0 | 8.0 | 27.4 | 0.00 | 0.25 | 0.13 | 80 | 999.8 |
| 20260505194620 | 28 | 0 | 9.7 | 32.2 | 0.00 | 0.25 | 0.13 | 80 | 999.9 |
| 20260505194518 | 28 | 0 | 11.3 | 32.2 | 0.00 | 0.25 | 0.13 | 80 | 999.9 |
| 20260505194416 | 28 | 0 | 14.5 | 32.2 | 0.00 | 0.25 | 0.13 | 80 | 999.9 |
| 20260505194305 | 28 | 0 | 16.1 | 33.8 | 0.00 | 0.25 | 0.13 | 80 | 1000.0 |
| 20260505194204 | 28 | 0 | 14.5 | 33.8 | 0.00 | 0.25 | 0.13 | 80 | 999.9 |
| 20260505194103 | 27 | 0 | 12.9 | 33.8 | 0.00 | 0.25 | 0.13 | 80 | 999.9 |
| 20260505194003 | 27 | 0 | 14.5 | 33.8 | 0.00 | 0.25 | 0.13 | 80 | 1000.0 |
| 20260505193904 | 27 | 0 | 16.1 | 33.8 | 0.00 | 0.25 | 0.13 | 80 | 999.9 |
| 20260505193802 | 27 | 0 | 19.3 | 33.8 | 0.00 | 0.25 | 0.13 | 80 | 999.8 |
| 20260505193702 | 27 | 0 | 19.3 | 33.8 | 0.00 | 0.25 | 0.13 | 80 | 999.9 |
| 20260505193602 | 28 | 0 | 17.7 | 33.8 | 0.00 | 0.25 | 0.13 | 80 | 999.9 |
| 20260505193505 | 28 | 0 | 17.7 | 33.8 | 0.00 | 0.25 | 0.13 | 80 | 1000.0 |
| 20260505193402 | 28 | 0 | 14.5 | 33.8 | 0.00 | 0.25 | 0.13 | 80 | 999.9 |
| 20260505193302 | 28 | 0 | 12.9 | 25.7 | 0.00 | 0.28 | 0.13 | 80 | 999.9 |
| 20260505193203 | 28 | 0 | 16.1 | 25.7 | 0.00 | 0.28 | 0.13 | 80 | 1000.0 |
| 20260505193102 | 28 | 0 | 12.9 | 25.7 | 0.00 | 0.28 | 0.13 | 80 | 999.9 |
| 20260505193002 | 28 | 0 | 11.3 | 25.7 | 0.00 | 0.28 | 0.13 | 80 | 999.9 |
| 20260505192904 | 28 | 0 | 11.3 | 25.7 | 0.00 | 0.28 | 0.13 | 80 | 999.8 |
| 20260505192802 | 28 | 0 | 12.9 | 25.7 | 0.00 | 0.28 | 0.13 | 80 | 999.9 |
| 20260505192702 | 27 | 0 | 12.9 | 25.7 | 0.00 | 0.28 | 0.13 | 80 | 999.9 |
| 20260505192602 | 28 | 0 | 14.5 | 25.7 | 0.00 | 0.28 | 0.13 | 80 | 999.9 |
| 20260505192504 | 28 | 0 | 14.5 | 25.7 | 0.00 | 0.28 | 0.13 | 80 | 999.9 |
| 20260505192402 | 28 | 0 | 12.9 | 25.7 | 0.00 | 0.28 | 0.13 | 80 | 999.9 |
| 20260505192305 | 28 | 0 | 14.5 | 25.7 | 0.00 | 0.28 | 0.13 | 80 | 999.9 |
| 20260505192203 | 28 | 0 | 14.5 | 25.7 | 0.00 | 0.28 | 0.13 | 80 | 999.8 |
| 20260505192102 | 28 | 0 | 14.5 | 25.7 | 0.00 | 0.28 | 0.13 | 80 | 999.9 |
| 20260505192002 | 28 | 0 | 12.9 | 22.5 | 0.00 | 0.28 | 0.13 | 80 | 999.9 |
| 20260505191902 | 28 | 0 | 12.9 | 20.9 | 0.00 | 0.28 | 0.13 | 80 | 999.9 |
| 20260505191802 | 28 | 0 | 12.9 | 20.9 | 0.00 | 0.28 | 0.13 | 81 | 999.8 |
| 20260505191702 | 28 | 0 | 9.7 | 20.9 | 0.00 | 0.28 | 0.13 | 81 | 999.8 |
| 20260505191602 | 28 | 0 | 9.7 | 20.9 | 0.00 | 0.28 | 0.13 | 81 | 999.8 |
| 20260505191504 | 28 | 0 | 9.7 | 20.9 | 0.00 | 0.28 | 0.13 | 81 | 999.9 |
| 20260505191402 | 28 | 0 | 8.0 | 22.5 | 0.00 | 0.28 | 0.13 | 81 | 999.9 |
| 20260505191300 | 28 | 0 | 9.7 | 22.5 | 0.00 | 0.28 | 0.13 | 81 | 999.8 |
| 20260505191158 | 28 | 0 | 11.3 | 22.5 | 0.00 | 0.28 | 0.13 | 81 | 1000.0 |
| 20260505191057 | 28 | 0 | 9.7 | 22.5 | 0.00 | 0.28 | 0.13 | 81 | 999.9 |
| 20260505190955 | 27 | 0 | 8.0 | 22.5 | 0.00 | 0.28 | 0.13 | 82 | 999.9 |
| 20260505190855 | 27 | 0 | 6.4 | 22.5 | 0.00 | 0.28 | 0.13 | 82 | 999.9 |
| 20260505190753 | 27 | 0 | 8.0 | 22.5 | 0.00 | 0.28 | 0.13 | 81 | 999.9 |
| 20260505190650 | 27 | 0 | 12.9 | 22.5 | 0.00 | 0.28 | 0.13 | 81 | 1000.0 |
| 20260505190549 | 27 | 0 | 14.5 | 24.1 | 0.00 | 0.28 | 0.13 | 81 | 999.9 |
| 20260505190448 | 27 | 0 | 12.9 | 24.1 | 0.00 | 0.28 | 0.13 | 82 | 1000.0 |
| 20260505190345 | 27 | 0 | 11.3 | 24.1 | 0.00 | 0.28 | 0.13 | 82 | 1000.0 |
| 20260505190246 | 27 | 0 | 9.7 | 24.1 | 0.00 | 0.28 | 0.13 | 82 | 999.9 |
| 20260505190140 | 27 | 0 | 9.7 | 24.1 | 0.00 | 0.28 | 0.13 | 82 | 1000.0 |
| 20260505190039 | 27 | 0 | 9.7 | 32.2 | 0.00 | 0.28 | 0.13 | 82 | 1000.1 |
| 20260505185936 | 27 | 0 | 9.7 | 32.2 | 0.00 | 0.28 | 0.13 | 82 | 1000.0 |
| 20260505185836 | 27 | 0 | 12.9 | 32.2 | 0.00 | 0.28 | 0.13 | 82 | 1000.1 |
| 20260505185737 | 27 | 0 | 14.5 | 32.2 | 0.00 | 0.28 | 0.13 | 82 | 1000.1 |
| 20260505185637 | 27 | 0 | 14.5 | 32.2 | 0.00 | 0.28 | 0.13 | 82 | 1000.2 |
| 20260505185536 | 27 | 0 | 12.9 | 32.2 | 0.00 | 0.28 | 0.13 | 82 | 1000.2 |
| 20260505185436 | 27 | 0 | 14.5 | 32.2 | 0.00 | 0.28 | 0.13 | 82 | 1000.2 |
| 20260505185337 | 27 | 0 | 12.9 | 32.2 | 0.00 | 0.28 | 0.13 | 82 | 1000.2 |
| 20260505185235 | 27 | 0 | 14.5 | 32.2 | 0.00 | 0.28 | 0.13 | 82 | 1000.2 |
| 20260505185136 | 27 | 0 | 16.1 | 32.2 | 0.00 | 0.28 | 0.13 | 83 | 1000.2 |
| 20260505185037 | 27 | 0 | 14.5 | 22.5 | 0.00 | 0.28 | 0.13 | 83 | 1000.3 |
| 20260505184936 | 27 | 0 | 14.5 | 22.5 | 0.00 | 0.28 | 0.13 | 83 | 1000.2 |
| 20260505184836 | 27 | 0 | 11.3 | 22.5 | 0.00 | 0.28 | 0.13 | 83 | 1000.2 |
| 20260505184736 | 27 | 0 | 11.3 | 22.5 | 0.00 | 0.28 | 0.13 | 83 | 1000.2 |
| 20260505184636 | 27 | 0 | 12.9 | 24.1 | 0.00 | 0.28 | 0.13 | 83 | 1000.2 |
| 20260505184536 | 27 | 0 | 11.3 | 24.1 | 0.00 | 0.28 | 0.13 | 84 | 1000.2 |
| 20260505184436 | 27 | 0 | 8.0 | 24.1 | 0.00 | 0.28 | 0.13 | 84 | 1000.3 |
| 20260505184335 | 27 | 0 | 9.7 | 24.1 | 0.03 | 0.28 | 0.13 | 84 | 1000.3 |
| 20260505184236 | 27 | 0 | 9.7 | 24.1 | 0.03 | 0.28 | 0.13 | 84 | 1000.4 |
| 20260505184136 | 27 | 0 | 8.0 | 24.1 | 0.03 | 0.28 | 0.13 | 84 | 1000.4 |
| 20260505184036 | 27 | 0 | 9.7 | 24.1 | 0.03 | 0.28 | 0.13 | 84 | 1000.3 |
| 20260505183935 | 27 | 0 | 11.3 | 24.1 | 0.03 | 0.28 | 0.13 | 84 | 1000.4 |
| 20260505183835 | 27 | 0 | 11.3 | 24.1 | 0.03 | 0.28 | 0.13 | 84 | 1000.5 |
| 20260505183736 | 27 | 0 | 11.3 | 24.1 | 0.03 | 0.28 | 0.13 | 84 | 1000.5 |
| 20260505183635 | 27 | 0 | 14.5 | 24.1 | 0.03 | 0.28 | 0.13 | 84 | 1000.5 |
| 20260505183536 | 27 | 0 | 16.1 | 24.1 | 0.03 | 0.28 | 0.13 | 84 | 1000.5 |
| 20260505183435 | 27 | 0 | 14.5 | 24.1 | 0.03 | 0.28 | 0.13 | 84 | 1000.5 |
| 20260505183336 | 27 | 0 | 11.3 | 24.1 | 0.03 | 0.28 | 0.13 | 84 | 1000.7 |
| 20260505183237 | 27 | 0 | 11.3 | 24.1 | 0.03 | 0.28 | 0.13 | 84 | 1000.5 |
| 20260505183135 | 27 | 0 | 11.3 | 24.1 | 0.03 | 0.28 | 0.13 | 84 | 1000.5 |
| 20260505183037 | 27 | 0 | 11.3 | 24.1 | 0.03 | 0.28 | 0.13 | 84 | 1000.3 |
| 20260505182935 | 27 | 0 | 12.9 | 24.1 | 0.03 | 0.28 | 0.13 | 84 | 1000.5 |
| 20260505182835 | 27 | 0 | 11.3 | 24.1 | 0.03 | 0.28 | 0.13 | 84 | 1000.5 |
| 20260505182736 | 27 | 0 | 9.7 | 24.1 | 0.03 | 0.28 | 0.13 | 84 | 1000.4 |
| 20260505182635 | 27 | 0 | 11.3 | 24.1 | 0.03 | 0.28 | 0.13 | 84 | 1000.4 |
| 20260505182537 | 27 | 0 | 14.5 | 24.1 | 0.03 | 0.28 | 0.13 | 84 | 1000.4 |
| 20260505182435 | 27 | 0 | 12.9 | 24.1 | 0.03 | 0.28 | 0.13 | 84 | 1000.5 |
| 20260505182335 | 27 | 0 | 12.9 | 20.9 | 0.03 | 0.28 | 0.13 | 84 | 1000.5 |
| 20260505182236 | 27 | 0 | 12.9 | 20.9 | 0.03 | 0.28 | 0.13 | 84 | 1000.5 |
| 20260505182135 | 27 | 0 | 11.3 | 19.3 | 0.03 | 0.28 | 0.13 | 85 | 1000.5 |
| 20260505182035 | 27 | 0 | 9.7 | 19.3 | 0.03 | 0.28 | 0.13 | 85 | 1000.5 |
| 20260505181935 | 26 | 0 | 9.7 | 19.3 | 0.03 | 0.30 | 0.13 | 85 | 1000.5 |
| 20260505181837 | 26 | 0 | 9.7 | 22.5 | 0.03 | 0.30 | 0.13 | 85 | 1000.5 |
| 20260505181735 | 26 | 0 | 6.4 | 22.5 | 0.03 | 0.30 | 0.13 | 85 | 1000.5 |
| 20260505181634 | 26 | 0 | 6.4 | 22.5 | 0.03 | 0.30 | 0.13 | 85 | 1000.5 |
| 20260505181536 | 26 | 0 | 9.7 | 22.5 | 0.03 | 0.30 | 0.13 | 85 | 1000.5 |
| 20260505181435 | 26 | 0 | 11.3 | 22.5 | 0.03 | 0.30 | 0.13 | 85 | 1000.5 |
| 20260505181335 | 26 | 0 | 11.3 | 22.5 | 0.03 | 0.30 | 0.13 | 85 | 1000.5 |
| 20260505181235 | 26 | 0 | 12.9 | 22.5 | 0.03 | 0.30 | 0.13 | 85 | 1000.5 |
| 20260505181136 | 26 | 0 | 12.9 | 22.5 | 0.03 | 0.30 | 0.13 | 85 | 1000.5 |
| 20260505181035 | 26 | 0 | 12.9 | 22.5 | 0.03 | 0.30 | 0.13 | 85 | 1000.6 |
| 20260505180935 | 26 | 0 | 14.5 | 22.5 | 0.03 | 0.30 | 0.13 | 85 | 1000.6 |
| 20260505180836 | 26 | 0 | 12.9 | 22.5 | 0.03 | 0.30 | 0.13 | 85 | 1000.6 |
| 20260505180735 | 26 | 0 | 9.7 | 20.9 | 0.03 | 0.30 | 0.13 | 85 | 1000.6 |
| 20260505180635 | 26 | 0 | 11.3 | 20.9 | 0.03 | 0.30 | 0.13 | 85 | 1000.5 |
| 20260505180536 | 26 | 0 | 11.3 | 20.9 | 0.03 | 0.30 | 0.13 | 85 | 1000.6 |
| 20260505180437 | 26 | 0 | 11.3 | 20.9 | 0.03 | 0.30 | 0.13 | 85 | 1000.6 |
| 20260505180336 | 26 | 0 | 11.3 | 19.3 | 0.03 | 0.30 | 0.13 | 85 | 1000.5 |
| 20260505180233 | 26 | 0 | 11.3 | 19.3 | 0.03 | 0.30 | 0.13 | 85 | 1000.6 |
| 20260505180136 | 26 | 0 | 11.3 | 24.1 | 0.03 | 0.30 | 0.13 | 85 | 1000.6 |
| 20260505180036 | 26 | 0 | 11.3 | 24.1 | 0.03 | 0.30 | 0.13 | 85 | 1000.6 |
| 20260505175935 | 26 | 0 | 11.3 | 24.1 | 0.03 | 0.30 | 0.13 | 85 | 1000.6 |
| 20260505175835 | 26 | 0 | 11.3 | 24.1 | 0.03 | 0.30 | 0.13 | 85 | 1000.7 |
| 20260505175736 | 26 | 0 | 12.9 | 24.1 | 0.03 | 0.30 | 0.13 | 85 | 1000.7 |
| 20260505175635 | 26 | 0 | 12.9 | 24.1 | 0.03 | 0.30 | 0.13 | 85 | 1000.7 |
| 20260505175534 | 26 | 0 | 11.3 | 24.1 | 0.03 | 0.30 | 0.13 | 86 | 1000.7 |
| 20260505175436 | 26 | 0 | 9.7 | 24.1 | 0.03 | 0.30 | 0.13 | 86 | 1000.7 |
| 20260505175334 | 26 | 0 | 11.3 | 24.1 | 0.03 | 0.30 | 0.13 | 85 | 1000.7 |
| 20260505175235 | 26 | 0 | 14.5 | 24.1 | 0.03 | 0.30 | 0.13 | 85 | 1000.7 |
| 20260505175134 | 26 | 0 | 16.1 | 22.5 | 0.03 | 0.30 | 0.13 | 85 | 1000.7 |
| 20260505175035 | 26 | 0 | 16.1 | 22.5 | 0.03 | 0.30 | 0.13 | 85 | 1000.7 |
| 20260505174934 | 26 | 0 | 14.5 | 22.5 | 0.03 | 0.30 | 0.13 | 86 | 1000.8 |
| 20260505174835 | 26 | 0 | 14.5 | 22.5 | 0.03 | 0.30 | 0.13 | 86 | 1000.7 |
| 20260505174735 | 26 | 0 | 11.3 | 22.5 | 0.03 | 0.30 | 0.13 | 86 | 1000.7 |
| 20260505174634 | 26 | 0 | 11.3 | 27.4 | 0.03 | 0.30 | 0.13 | 86 | 1000.7 |
| 20260505174534 | 26 | 0 | 12.9 | 27.4 | 0.03 | 0.30 | 0.13 | 87 | 1000.8 |
| 20260505174432 | 26 | 217 | 9.7 | 27.4 | 0.03 | 0.30 | 0.13 | 87 | 1000.7 |
| 20260505174330 | 26 | 193 | 9.7 | 27.4 | 0.00 | 0.28 | 0.10 | 87 | 1000.6 |
| 20260505174230 | 26 | 199 | 11.3 | 27.4 | 0.00 | 0.28 | 0.10 | 86 | 1000.7 |
| 20260505174127 | 26 | 192 | 12.9 | 27.4 | 0.00 | 0.28 | 0.10 | 86 | 1000.7 |
| 20260505174026 | 26 | 212 | 14.5 | 27.4 | 0.00 | 0.28 | 0.10 | 86 | 1000.8 |
| 20260505173925 | 26 | 199 | 12.9 | 27.4 | 0.00 | 0.28 | 0.10 | 86 | 1000.8 |
| 20260505173822 | 26 | 190 | 12.9 | 27.4 | 0.00 | 0.28 | 0.10 | 86 | 1000.8 |
| 20260505173720 | 26 | 204 | 11.3 | 27.4 | 0.00 | 0.28 | 0.10 | 86 | 1000.7 |
| 20260505173618 | 26 | 213 | 11.3 | 24.1 | 0.00 | 0.28 | 0.10 | 86 | 1000.7 |
| 20260505173517 | 26 | 212 | 14.5 | 24.1 | 0.00 | 0.28 | 0.10 | 86 | 1000.8 |
| 20260505173416 | 26 | 189 | 14.5 | 24.1 | 0.00 | 0.28 | 0.10 | 86 | 1000.8 |
| 20260505173314 | 26 | 179 | 12.9 | 24.1 | 0.00 | 0.28 | 0.10 | 86 | 1000.8 |
| 20260505173213 | 26 | 197 | 14.5 | 24.1 | 0.00 | 0.28 | 0.10 | 86 | 1000.8 |
| 20260505173111 | 26 | 188 | 17.7 | 24.1 | 0.00 | 0.28 | 0.10 | 86 | 1000.8 |
| 20260505173010 | 26 | 0 | 14.5 | 24.1 | 0.00 | 0.28 | 0.10 | 86 | 1000.8 |
| 20260505172908 | 26 | 0 | 9.7 | 17.7 | 0.00 | 0.28 | 0.10 | 86 | 1000.8 |
| 20260505172807 | 26 | 0 | 8.0 | 19.3 | 0.00 | 0.28 | 0.10 | 86 | 1000.8 |
| 20260505172704 | 26 | 0 | 8.0 | 19.3 | 0.00 | 0.28 | 0.10 | 87 | 1000.8 |
| 20260505172603 | 26 | 0 | 9.7 | 19.3 | 0.00 | 0.28 | 0.10 | 87 | 1000.8 |
| 20260505172504 | 26 | 0 | 8.0 | 19.3 | 0.00 | 0.28 | 0.10 | 87 | 1000.8 |
| 20260505172402 | 26 | 0 | 8.0 | 19.3 | 0.00 | 0.28 | 0.10 | 87 | 1000.8 |
| 20260505172301 | 26 | 0 | 6.4 | 19.3 | 0.00 | 0.28 | 0.10 | 87 | 1000.8 |
| 20260505172203 | 26 | 0 | 8.0 | 19.3 | 0.00 | 0.28 | 0.10 | 87 | 1000.9 |
| 20260505172102 | 26 | 0 | 11.3 | 19.3 | 0.00 | 0.28 | 0.10 | 87 | 1000.8 |
| 20260505172004 | 26 | 0 | 9.7 | 19.3 | 0.00 | 0.28 | 0.10 | 87 | 1001.0 |
| 20260505171904 | 26 | 0 | 8.0 | 17.7 | 0.00 | 0.28 | 0.10 | 87 | 1000.9 |
| 20260505171802 | 26 | 0 | 9.7 | 17.7 | 0.00 | 0.28 | 0.10 | 88 | 1000.9 |
| 20260505171702 | 26 | 0 | 9.7 | 17.7 | 0.00 | 0.28 | 0.10 | 88 | 1000.8 |
| 20260505171603 | 25 | 206 | 9.7 | 17.7 | 0.00 | 0.28 | 0.10 | 88 | 1000.9 |
| 20260505171504 | 25 | 185 | 9.7 | 14.5 | 0.00 | 0.28 | 0.10 | 88 | 1000.9 |
| 20260505171402 | 25 | 0 | 6.4 | 14.5 | 0.00 | 0.28 | 0.10 | 88 | 1001.0 |
| 20260505171302 | 25 | 217 | 6.4 | 19.3 | 0.00 | 0.28 | 0.10 | 88 | 1000.9 |
| 20260505171203 | 25 | 224 | 8.0 | 19.3 | 0.00 | 0.30 | 0.10 | 88 | 1001.0 |
| 20260505171103 | 25 | 199 | 9.7 | 20.9 | 0.00 | 0.30 | 0.10 | 88 | 1001.0 |
| 20260505170950 | 25 | 245 | 9.7 | 20.9 | 0.00 | 0.30 | 0.10 | 88 | 1001.0 |
| 20260505170848 | 25 | 214 | 9.7 | 20.9 | 0.00 | 0.30 | 0.10 | 88 | 1001.0 |
| 20260505170747 | 25 | 193 | 9.7 | 20.9 | 0.00 | 0.30 | 0.10 | 88 | 1001.0 |
| 20260505170646 | 25 | 183 | 8.0 | 20.9 | 0.00 | 0.30 | 0.10 | 88 | 1001.1 |
| 20260505170544 | 25 | 214 | 8.0 | 20.9 | 0.00 | 0.30 | 0.10 | 88 | 1001.0 |
| 20260505170439 | 25 | 213 | 9.7 | 20.9 | 0.00 | 0.30 | 0.10 | 88 | 1001.1 |
| 20260505170337 | 25 | 224 | 9.7 | 20.9 | 0.00 | 0.30 | 0.10 | 88 | 1001.1 |
| 20260505170236 | 25 | 196 | 9.7 | 20.9 | 0.00 | 0.30 | 0.10 | 88 | 1001.1 |
| 20260505170134 | 25 | 203 | 9.7 | 19.3 | 0.00 | 0.30 | 0.10 | 88 | 1001.1 |
| 20260505170035 | 25 | 203 | 11.3 | 19.3 | 0.00 | 0.30 | 0.10 | 88 | 1001.1 |
| 20260505165933 | 25 | 202 | 11.3 | 17.7 | 0.00 | 0.30 | 0.10 | 88 | 1001.1 |
| 20260505165833 | 25 | 220 | 9.7 | 17.7 | 0.00 | 0.30 | 0.10 | 88 | 1001.0 |
| 20260505165733 | 25 | 196 | 6.4 | 16.1 | 0.00 | 0.30 | 0.10 | 88 | 1001.0 |
| 20260505165633 | 25 | 193 | 6.4 | 16.1 | 0.00 | 0.30 | 0.10 | 88 | 1001.1 |
| 20260505165534 | 25 | 199 | 8.0 | 16.1 | 0.00 | 0.30 | 0.10 | 88 | 1001.0 |
| 20260505165434 | 25 | 192 | 9.7 | 16.1 | 0.00 | 0.30 | 0.10 | 88 | 1001.0 |
| 20260505165333 | 25 | 203 | 8.0 | 16.1 | 0.00 | 0.30 | 0.10 | 88 | 1001.0 |
| 20260505165234 | 25 | 178 | 8.0 | 16.1 | 0.00 | 0.30 | 0.10 | 88 | 1000.9 |
| 20260505165133 | 25 | 196 | 9.7 | 16.1 | 0.00 | 0.30 | 0.10 | 88 | 1000.9 |
| 20260505165033 | 25 | 182 | 11.3 | 16.1 | 0.00 | 0.30 | 0.10 | 88 | 1001.0 |
| 20260505164933 | 25 | 0 | 9.7 | 17.7 | 0.00 | 0.30 | 0.10 | 88 | 1000.9 |
| 20260505164834 | 25 | 185 | 9.7 | 17.7 | 0.00 | 0.30 | 0.10 | 88 | 1001.0 |
| 20260505164733 | 25 | 221 | 9.7 | 17.7 | 0.00 | 0.30 | 0.10 | 88 | 1000.9 |
| 20260505164633 | 25 | 188 | 9.7 | 17.7 | 0.00 | 0.30 | 0.10 | 88 | 1001.0 |
| 20260505164534 | 25 | 197 | 9.7 | 17.7 | 0.00 | 0.30 | 0.10 | 88 | 1001.0 |
| 20260505164433 | 25 | 193 | 8.0 | 17.7 | 0.00 | 0.30 | 0.10 | 88 | 1001.0 |
| 20260505164334 | 25 | 0 | 6.4 | 17.7 | 0.00 | 0.30 | 0.10 | 88 | 1001.0 |
| 20260505164233 | 25 | 0 | 8.0 | 17.7 | 0.00 | 0.30 | 0.10 | 88 | 1001.1 |
| 20260505164133 | 25 | 0 | 9.7 | 17.7 | 0.00 | 0.30 | 0.10 | 88 | 1001.0 |
| 20260505164033 | 25 | 0 | 9.7 | 17.7 | 0.00 | 0.30 | 0.10 | 88 | 1001.0 |
| 20260505163932 | 25 | 0 | 11.3 | 20.9 | 0.00 | 0.30 | 0.10 | 88 | 1001.0 |
| 20260505163834 | 25 | 0 | 9.7 | 20.9 | 0.00 | 0.30 | 0.10 | 89 | 1001.0 |
| 20260505163732 | 25 | 0 | 9.7 | 20.9 | 0.00 | 0.30 | 0.10 | 89 | 1001.1 |
| 20260505163633 | 25 | 0 | 9.7 | 20.9 | 0.00 | 0.30 | 0.10 | 89 | 1001.0 |
| 20260505163532 | 25 | 0 | 8.0 | 20.9 | 0.00 | 0.30 | 0.10 | 89 | 1001.0 |
| 20260505163435 | 25 | 0 | 9.7 | 20.9 | 0.00 | 0.30 | 0.10 | 89 | 1001.1 |
| 20260505163333 | 25 | 0 | 11.3 | 20.9 | 0.00 | 0.30 | 0.10 | 89 | 1000.9 |
| 20260505163232 | 25 | 0 | 9.7 | 20.9 | 0.00 | 0.30 | 0.10 | 89 | 1001.0 |
| 20260505163133 | 25 | 0 | 11.3 | 20.9 | 0.00 | 0.30 | 0.10 | 89 | 1000.9 |
| 20260505163032 | 25 | 0 | 11.3 | 20.9 | 0.00 | 0.30 | 0.10 | 89 | 1001.0 |
| 20260505162933 | 25 | 0 | 11.3 | 19.3 | 0.00 | 0.30 | 0.10 | 89 | 1001.1 |
| 20260505162832 | 25 | 0 | 11.3 | 19.3 | 0.00 | 0.30 | 0.10 | 89 | 1001.0 |
| 20260505162733 | 25 | 0 | 9.7 | 19.3 | 0.00 | 0.30 | 0.10 | 89 | 1001.0 |
| 20260505162632 | 25 | 0 | 8.0 | 19.3 | 0.00 | 0.30 | 0.10 | 89 | 1001.0 |
| 20260505162532 | 25 | 0 | 9.7 | 19.3 | 0.00 | 0.30 | 0.10 | 89 | 1000.9 |
| 20260505162433 | 25 | 0 | 11.3 | 19.3 | 0.00 | 0.30 | 0.10 | 89 | 1001.0 |
| 20260505162332 | 25 | 0 | 11.3 | 19.3 | 0.00 | 0.30 | 0.10 | 89 | 1001.0 |
| 20260505162233 | 25 | 0 | 11.3 | 19.3 | 0.00 | 0.30 | 0.10 | 90 | 1001.0 |
| 20260505162132 | 25 | 0 | 11.3 | 19.3 | 0.00 | 0.30 | 0.10 | 90 | 1001.1 |
| 20260505162033 | 25 | 206 | 11.3 | 22.5 | 0.00 | 0.30 | 0.10 | 90 | 1001.0 |
| 20260505161932 | 25 | 230 | 9.7 | 22.5 | 0.00 | 0.30 | 0.10 | 90 | 1001.0 |
| 20260505161830 | 25 | 0 | 8.0 | 22.5 | 0.00 | 0.30 | 0.10 | 90 | 1001.0 |
| 20260505161731 | 25 | 0 | 8.0 | 22.5 | 0.00 | 0.30 | 0.10 | 90 | 1000.9 |
| 20260505161633 | 25 | 0 | 8.0 | 22.5 | 0.00 | 0.30 | 0.10 | 90 | 1001.0 |
| 20260505161531 | 25 | 0 | 6.4 | 22.5 | 0.00 | 0.30 | 0.10 | 90 | 1001.0 |
| 20260505161430 | 25 | 219 | 8.0 | 22.5 | 0.00 | 0.30 | 0.10 | 90 | 1000.9 |
| 20260505161330 | 25 | 206 | 9.7 | 22.5 | 0.00 | 0.30 | 0.10 | 90 | 1000.9 |
| 20260505161229 | 25 | 206 | 9.7 | 22.5 | 0.00 | 0.30 | 0.10 | 90 | 1000.9 |
| 20260505161126 | 25 | 189 | 9.7 | 22.5 | 0.00 | 0.33 | 0.10 | 90 | 1000.8 |
| 20260505161025 | 25 | 178 | 11.3 | 20.9 | 0.00 | 0.33 | 0.10 | 90 | 1000.9 |
| 20260505160923 | 25 | 173 | 12.9 | 20.9 | 0.00 | 0.33 | 0.10 | 90 | 1000.8 |
| 20260505160822 | 25 | 203 | 9.7 | 20.9 | 0.00 | 0.33 | 0.10 | 90 | 1000.7 |
| 20260505160720 | 25 | 193 | 6.4 | 20.9 | 0.00 | 0.33 | 0.10 | 90 | 1000.9 |
| 20260505160620 | 25 | 217 | 6.4 | 20.9 | 0.00 | 0.33 | 0.10 | 90 | 1000.8 |
| 20260505160515 | 25 | 221 | 9.7 | 20.9 | 0.00 | 0.33 | 0.10 | 90 | 1000.8 |
| 20260505160414 | 25 | 207 | 9.7 | 20.9 | 0.00 | 0.33 | 0.10 | 90 | 1000.8 |
| 20260505160313 | 25 | 197 | 9.7 | 17.7 | 0.00 | 0.33 | 0.10 | 90 | 1000.9 |
| 20260505160211 | 25 | 185 | 9.7 | 17.7 | 0.00 | 0.33 | 0.10 | 90 | 1000.9 |
| 20260505160110 | 25 | 178 | 11.3 | 16.1 | 0.00 | 0.33 | 0.10 | 90 | 1000.9 |
| 20260505153303 | 24 | 151 | 11.3 | 24.1 | 0.00 | 0.33 | 0.10 | 91 | 1000.8 |
| 20260505153203 | 24 | 172 | 11.3 | 24.1 | 0.00 | 0.33 | 0.10 | 91 | 1000.7 |
| 20260505153102 | 24 | 173 | 9.7 | 24.1 | 0.00 | 0.33 | 0.10 | 91 | 1000.8 |
| 20260505153003 | 24 | 227 | 14.5 | 24.1 | 0.00 | 0.33 | 0.10 | 91 | 1000.8 |
| 20260505152903 | 24 | 180 | 14.5 | 24.1 | 0.00 | 0.33 | 0.10 | 91 | 1000.8 |
| 20260505152802 | 24 | 186 | 12.9 | 24.1 | 0.00 | 0.33 | 0.10 | 91 | 1000.7 |
| 20260505152702 | 24 | 196 | 11.3 | 24.1 | 0.00 | 0.33 | 0.10 | 91 | 1000.8 |
| 20260505152604 | 24 | 185 | 11.3 | 24.1 | 0.00 | 0.33 | 0.10 | 91 | 1000.7 |
| 20260505152503 | 24 | 192 | 14.5 | 24.1 | 0.00 | 0.33 | 0.10 | 91 | 1000.7 |
| 20260505152403 | 24 | 178 | 11.3 | 24.1 | 0.00 | 0.33 | 0.10 | 91 | 1000.7 |
| 20260505152305 | 24 | 164 | 9.7 | 20.9 | 0.00 | 0.33 | 0.10 | 91 | 1000.7 |
| 20260505152202 | 24 | 179 | 9.7 | 20.9 | 0.00 | 0.33 | 0.10 | 91 | 1000.6 |
| 20260505152102 | 24 | 158 | 6.4 | 20.9 | 0.00 | 0.33 | 0.10 | 91 | 1000.7 |
| 20260505152002 | 24 | 178 | 8.0 | 20.9 | 0.00 | 0.33 | 0.10 | 91 | 1000.6 |
| 20260505151903 | 24 | 216 | 8.0 | 20.9 | 0.00 | 0.33 | 0.10 | 91 | 1000.7 |
| 20260505151803 | 24 | 190 | 8.0 | 20.9 | 0.00 | 0.33 | 0.10 | 91 | 1000.7 |
| 20260505151702 | 24 | 216 | 9.7 | 20.9 | 0.00 | 0.33 | 0.10 | 91 | 1000.7 |
| 20260505151603 | 24 | 189 | 12.9 | 20.9 | 0.00 | 0.33 | 0.10 | 91 | 1000.7 |
| 20260505151502 | 24 | 171 | 11.3 | 20.9 | 0.00 | 0.33 | 0.10 | 91 | 1000.8 |
| 20260505151402 | 24 | 182 | 8.0 | 20.9 | 0.00 | 0.33 | 0.10 | 91 | 1000.7 |
| 20260505151302 | 23 | 161 | 6.4 | 22.5 | 0.00 | 0.33 | 0.10 | 91 | 1000.7 |
| 20260505151203 | 23 | 140 | 9.7 | 27.4 | 0.00 | 0.33 | 0.10 | 91 | 1000.7 |
| 20260505151103 | 23 | 195 | 11.3 | 27.4 | 0.00 | 0.33 | 0.10 | 91 | 1000.7 |
| 20260505150957 | 23 | 197 | 11.3 | 27.4 | 0.00 | 0.36 | 0.10 | 91 | 1000.7 |
| 20260505150854 | 23 | 207 | 12.9 | 27.4 | 0.00 | 0.36 | 0.10 | 91 | 1000.8 |
| 20260505150754 | 23 | 179 | 11.3 | 27.4 | 0.00 | 0.36 | 0.10 | 91 | 1000.7 |
| 20260505150649 | 23 | 192 | 11.3 | 27.4 | 0.00 | 0.36 | 0.10 | 91 | 1000.7 |
| 20260505150548 | 23 | 172 | 12.9 | 27.4 | 0.00 | 0.36 | 0.10 | 91 | 1000.7 |
| 20260505150447 | 23 | 172 | 17.7 | 27.4 | 0.00 | 0.36 | 0.10 | 91 | 1000.7 |
| 20260505150346 | 23 | 173 | 17.7 | 27.4 | 0.00 | 0.36 | 0.10 | 91 | 1000.7 |
| 20260505150244 | 23 | 209 | 12.9 | 24.1 | 0.00 | 0.36 | 0.10 | 91 | 1000.6 |
| 20260505150142 | 23 | 173 | 8.0 | 25.7 | 0.00 | 0.36 | 0.10 | 91 | 1000.6 |
| 20260505140629 | 23 | 173 | 14.5 | 27.4 | 0.03 | 0.38 | 0.10 | 94 | 1000.5 |
| 20260505140531 | 23 | 182 | 12.9 | 27.4 | 0.03 | 0.38 | 0.10 | 93 | 1000.5 |
| 20260505140429 | 23 | 0 | 16.1 | 29.0 | 0.03 | 0.38 | 0.10 | 93 | 1000.5 |
| 20260505140329 | 23 | 176 | 16.1 | 29.0 | 0.03 | 0.38 | 0.10 | 93 | 1000.4 |
| 20260505140229 | 23 | 197 | 12.9 | 29.0 | 0.03 | 0.38 | 0.10 | 93 | 1000.5 |
| 20260505140130 | 23 | 190 | 14.5 | 29.0 | 0.03 | 0.38 | 0.10 | 93 | 1000.5 |
| 20260505130228 | 22 | 168 | 11.3 | 17.7 | 0.00 | 0.36 | 0.08 | 95 | 1000.3 |
| 20260505130127 | 22 | 178 | 9.7 | 16.1 | 0.00 | 0.36 | 0.08 | 95 | 1000.3 |
| 20260505125027 | 22 | 204 | 11.3 | 20.9 | 0.00 | 0.38 | 0.08 | 95 | 1000.2 |
| 20260505124927 | 22 | 179 | 9.7 | 20.9 | 0.00 | 0.38 | 0.08 | 95 | 1000.2 |
| 20260505124827 | 22 | 196 | 6.4 | 20.9 | 0.00 | 0.38 | 0.08 | 95 | 1000.3 |
| 20260505124728 | 21 | 176 | 8.0 | 20.9 | 0.00 | 0.38 | 0.08 | 95 | 1000.3 |
| 20260505124627 | 21 | 200 | 9.7 | 20.9 | 0.00 | 0.38 | 0.08 | 95 | 1000.3 |
| 20260505124530 | 21 | 193 | 9.7 | 20.9 | 0.00 | 0.38 | 0.08 | 95 | 1000.3 |
| 20260505124428 | 21 | 186 | 8.0 | 20.9 | 0.00 | 0.38 | 0.08 | 95 | 1000.2 |
| 20260505124327 | 21 | 179 | 11.3 | 24.1 | 0.00 | 0.38 | 0.08 | 95 | 1000.2 |
| 20260505124229 | 21 | 172 | 14.5 | 24.1 | 0.00 | 0.38 | 0.08 | 95 | 1000.2 |
| 20260505124128 | 21 | 180 | 14.5 | 24.1 | 0.00 | 0.38 | 0.08 | 95 | 1000.1 |
| 20260505124028 | 21 | 161 | 14.5 | 24.1 | 0.00 | 0.38 | 0.08 | 95 | 1000.0 |
| 20260505123927 | 21 | 192 | 14.5 | 24.1 | 0.00 | 0.38 | 0.08 | 95 | 1000.1 |
| 20260505123829 | 21 | 169 | 14.5 | 24.1 | 0.00 | 0.38 | 0.08 | 95 | 1000.0 |
| 20260505123728 | 21 | 209 | 14.5 | 24.1 | 0.00 | 0.38 | 0.08 | 95 | 1000.0 |
| 20260505123627 | 21 | 182 | 14.5 | 24.1 | 0.00 | 0.38 | 0.08 | 95 | 1000.0 |
| 20260505123529 | 21 | 193 | 16.1 | 24.1 | 0.00 | 0.38 | 0.08 | 95 | 1000.0 |
| 20260505123427 | 21 | 176 | 14.5 | 24.1 | 0.00 | 0.38 | 0.08 | 95 | 1000.0 |
| 20260505123327 | 21 | 162 | 11.3 | 17.7 | 0.00 | 0.38 | 0.08 | 95 | 1000.0 |
| 20260505123227 | 21 | 196 | 11.3 | 19.3 | 0.00 | 0.38 | 0.08 | 95 | 1000.0 |
| 20260505123128 | 21 | 182 | 12.9 | 19.3 | 0.00 | 0.38 | 0.08 | 95 | 1000.0 |
| 20260505123029 | 21 | 193 | 12.9 | 19.3 | 0.00 | 0.38 | 0.08 | 95 | 999.9 |
| 20260505122927 | 21 | 182 | 12.9 | 19.3 | 0.00 | 0.38 | 0.08 | 95 | 999.8 |
| 20260505122828 | 21 | 189 | 11.3 | 19.3 | 0.00 | 0.38 | 0.08 | 95 | 1000.0 |
| 20260505122727 | 21 | 164 | 9.7 | 19.3 | 0.00 | 0.38 | 0.08 | 95 | 999.9 |
| 20260505122627 | 21 | 168 | 9.7 | 19.3 | 0.00 | 0.38 | 0.08 | 95 | 999.8 |
| 20260505122527 | 21 | 166 | 11.3 | 19.3 | 0.00 | 0.38 | 0.08 | 95 | 999.9 |
| 20260505122428 | 21 | 165 | 12.9 | 19.3 | 0.00 | 0.38 | 0.08 | 95 | 999.9 |
| 20260505122328 | 21 | 197 | 11.3 | 19.3 | 0.00 | 0.38 | 0.08 | 95 | 1000.0 |
| 20260505122227 | 21 | 192 | 8.0 | 19.3 | 0.00 | 0.38 | 0.08 | 95 | 1000.0 |
| 20260505122128 | 21 | 171 | 8.0 | 19.3 | 0.00 | 0.38 | 0.08 | 95 | 1000.0 |
| 20260505122027 | 21 | 183 | 11.3 | 19.3 | 0.00 | 0.38 | 0.08 | 95 | 1000.0 |
| 20260505121927 | 21 | 186 | 11.3 | 19.3 | 0.00 | 0.38 | 0.08 | 95 | 1000.0 |
| 20260505121829 | 21 | 175 | 9.7 | 19.3 | 0.00 | 0.38 | 0.08 | 95 | 1000.0 |
| 20260505121728 | 21 | 180 | 11.3 | 19.3 | 0.00 | 0.38 | 0.08 | 95 | 1000.0 |
| 20260505121627 | 21 | 172 | 9.7 | 19.3 | 0.00 | 0.38 | 0.08 | 95 | 999.9 |
| 20260505121526 | 21 | 190 | 9.7 | 19.3 | 0.00 | 0.38 | 0.08 | 95 | 999.9 |
| 20260505121428 | 21 | 189 | 9.7 | 19.3 | 0.00 | 0.38 | 0.08 | 95 | 999.9 |
| 20260505121327 | 21 | 178 | 9.7 | 19.3 | 0.00 | 0.38 | 0.08 | 95 | 999.9 |
| 20260505121227 | 21 | 195 | 9.7 | 19.3 | 0.00 | 0.38 | 0.08 | 95 | 999.9 |
| 20260505121128 | 21 | 176 | 9.7 | 19.3 | 0.00 | 0.38 | 0.08 | 95 | 999.8 |
| 20260505121027 | 21 | 192 | 9.7 | 19.3 | 0.00 | 0.38 | 0.08 | 95 | 999.8 |
| 20260505120927 | 21 | 162 | 9.7 | 19.3 | 0.00 | 0.38 | 0.08 | 95 | 999.8 |
| 20260505120826 | 21 | 190 | 8.0 | 19.3 | 0.00 | 0.38 | 0.08 | 95 | 999.9 |
| 20260505120727 | 21 | 169 | 8.0 | 14.5 | 0.00 | 0.38 | 0.08 | 95 | 999.8 |
| 20260505120627 | 21 | 180 | 8.0 | 14.5 | 0.00 | 0.38 | 0.08 | 95 | 999.9 |
| 20260505120527 | 21 | 185 | 8.0 | 14.5 | 0.00 | 0.38 | 0.08 | 95 | 999.9 |
| 20260505120428 | 21 | 183 | 8.0 | 16.1 | 0.00 | 0.38 | 0.08 | 95 | 999.9 |
| 20260505120327 | 21 | 175 | 8.0 | 16.1 | 0.00 | 0.38 | 0.08 | 95 | 999.9 |
| 20260505120227 | 21 | 175 | 8.0 | 16.1 | 0.00 | 0.38 | 0.08 | 95 | 999.9 |
| 20260505120126 | 21 | 189 | 8.0 | 17.7 | 0.00 | 0.38 | 0.08 | 95 | 999.9 |
| 20260505120026 | 21 | 175 | 6.4 | 17.7 | 0.00 | 0.38 | 0.08 | 95 | 1000.0 |
| 20260505115927 | 21 | 193 | 6.4 | 17.7 | 0.00 | 0.38 | 0.08 | 95 | 1000.0 |
| 20260505115826 | 21 | 195 | 6.4 | 17.7 | 0.00 | 0.38 | 0.08 | 95 | 1000.0 |
| 20260505115727 | 21 | 183 | 9.7 | 17.7 | 0.00 | 0.38 | 0.08 | 95 | 1000.0 |
| 20260505115626 | 21 | 179 | 9.7 | 17.7 | 0.00 | 0.38 | 0.08 | 95 | 1000.0 |
| 20260505115527 | 21 | 185 | 9.7 | 17.7 | 0.00 | 0.38 | 0.08 | 95 | 1000.0 |
| 20260505115426 | 21 | 182 | 9.7 | 17.7 | 0.03 | 0.38 | 0.08 | 95 | 999.9 |
| 20260505115327 | 21 | 180 | 9.7 | 17.7 | 0.03 | 0.38 | 0.08 | 95 | 999.8 |
| 20260505115226 | 21 | 183 | 9.7 | 17.7 | 0.03 | 0.38 | 0.08 | 95 | 999.8 |
| 20260505115126 | 21 | 185 | 9.7 | 16.1 | 0.03 | 0.38 | 0.08 | 95 | 999.8 |
| 20260505115028 | 21 | 166 | 9.7 | 16.1 | 0.03 | 0.38 | 0.08 | 95 | 999.7 |
| 20260505114926 | 21 | 172 | 9.7 | 16.1 | 0.03 | 0.38 | 0.08 | 95 | 999.6 |
| 20260505114826 | 21 | 157 | 8.0 | 16.1 | 0.03 | 0.38 | 0.08 | 95 | 999.6 |
| 20260505114726 | 21 | 186 | 8.0 | 14.5 | 0.03 | 0.38 | 0.08 | 95 | 999.6 |
| 20260505114627 | 21 | 164 | 9.7 | 19.3 | 0.03 | 0.38 | 0.08 | 95 | 999.6 |
| 20260505114527 | 21 | 166 | 9.7 | 19.3 | 0.03 | 0.38 | 0.08 | 95 | 999.7 |
| 20260505114427 | 21 | 196 | 8.0 | 19.3 | 0.03 | 0.38 | 0.08 | 95 | 999.7 |
| 20260505114328 | 21 | 180 | 9.7 | 19.3 | 0.03 | 0.38 | 0.08 | 95 | 999.7 |
| 20260505114226 | 21 | 171 | 9.7 | 19.3 | 0.03 | 0.38 | 0.08 | 95 | 999.8 |
| 20260505114126 | 21 | 206 | 9.7 | 19.3 | 0.03 | 0.38 | 0.08 | 95 | 999.7 |
| 20260505114026 | 21 | 190 | 8.0 | 19.3 | 0.03 | 0.38 | 0.08 | 95 | 999.8 |
| 20260505113927 | 21 | 190 | 9.7 | 19.3 | 0.03 | 0.38 | 0.08 | 95 | 999.8 |
| 20260505113826 | 21 | 199 | 9.7 | 19.3 | 0.03 | 0.38 | 0.08 | 95 | 999.7 |
| 20260505113726 | 21 | 199 | 11.3 | 19.3 | 0.03 | 0.38 | 0.08 | 95 | 999.6 |
| 20260505113628 | 21 | 204 | 11.3 | 17.7 | 0.03 | 0.38 | 0.08 | 95 | 999.7 |
| 20260505113526 | 21 | 180 | 11.3 | 17.7 | 0.03 | 0.38 | 0.08 | 95 | 999.6 |
| 20260505113426 | 21 | 171 | 11.3 | 17.7 | 0.03 | 0.38 | 0.08 | 95 | 999.6 |
| 20260505113327 | 21 | 173 | 9.7 | 16.1 | 0.03 | 0.38 | 0.08 | 95 | 999.7 |
| 20260505113227 | 21 | 175 | 9.7 | 16.1 | 0.03 | 0.38 | 0.08 | 95 | 999.7 |
| 20260505113125 | 21 | 179 | 9.7 | 16.1 | 0.03 | 0.38 | 0.08 | 95 | 999.6 |
| 20260505113026 | 21 | 183 | 9.7 | 16.1 | 0.03 | 0.38 | 0.08 | 95 | 999.5 |
| 20260505112927 | 21 | 188 | 9.7 | 16.1 | 0.03 | 0.38 | 0.08 | 95 | 999.6 |
| 20260505112826 | 21 | 183 | 9.7 | 16.1 | 0.03 | 0.38 | 0.08 | 95 | 999.5 |
| 20260505112726 | 21 | 173 | 9.7 | 14.5 | 0.03 | 0.38 | 0.08 | 95 | 999.6 |
| 20260505112627 | 21 | 188 | 8.0 | 14.5 | 0.03 | 0.38 | 0.08 | 95 | 999.6 |
| 20260505112527 | 21 | 185 | 8.0 | 14.5 | 0.03 | 0.38 | 0.08 | 95 | 999.7 |
| 20260505112426 | 21 | 172 | 8.0 | 14.5 | 0.03 | 0.38 | 0.08 | 95 | 999.8 |
| 20260505112326 | 21 | 173 | 8.0 | 14.5 | 0.03 | 0.38 | 0.08 | 95 | 999.8 |
| 20260505112227 | 21 | 197 | 8.0 | 14.5 | 0.03 | 0.38 | 0.08 | 95 | 999.8 |
| 20260505112126 | 21 | 183 | 8.0 | 16.1 | 0.03 | 0.38 | 0.08 | 95 | 999.9 |
| 20260505112026 | 21 | 185 | 6.4 | 16.1 | 0.03 | 0.38 | 0.08 | 95 | 1000.0 |
| 20260505111926 | 21 | 162 | 6.4 | 16.1 | 0.03 | 0.41 | 0.08 | 95 | 1000.0 |
| 20260505111825 | 21 | 188 | 8.0 | 16.1 | 0.03 | 0.41 | 0.08 | 95 | 1000.1 |
| 20260505111726 | 21 | 189 | 8.0 | 16.1 | 0.03 | 0.41 | 0.08 | 95 | 1000.1 |
| 20260505111625 | 21 | 188 | 6.4 | 16.1 | 0.03 | 0.41 | 0.08 | 95 | 1000.0 |
| 20260505111527 | 21 | 217 | 8.0 | 16.1 | 0.03 | 0.41 | 0.08 | 95 | 1000.1 |
| 20260505111425 | 21 | 196 | 9.7 | 16.1 | 0.03 | 0.41 | 0.08 | 95 | 1000.0 |
| 20260505111325 | 21 | 196 | 9.7 | 16.1 | 0.03 | 0.41 | 0.08 | 95 | 1000.0 |
| 20260505111226 | 21 | 182 | 9.7 | 16.1 | 0.03 | 0.41 | 0.08 | 95 | 1000.0 |
| 20260505111125 | 21 | 169 | 9.7 | 16.1 | 0.03 | 0.41 | 0.08 | 95 | 999.9 |
| 20260505111026 | 21 | 185 | 11.3 | 16.1 | 0.03 | 0.41 | 0.08 | 95 | 999.8 |
| 20260505110925 | 21 | 176 | 9.7 | 16.1 | 0.03 | 0.41 | 0.08 | 95 | 999.7 |
| 20260505110826 | 21 | 179 | 9.7 | 16.1 | 0.03 | 0.41 | 0.08 | 95 | 999.7 |
| 20260505110726 | 21 | 172 | 9.7 | 16.1 | 0.03 | 0.41 | 0.08 | 95 | 999.7 |
| 20260505110625 | 21 | 178 | 8.0 | 16.1 | 0.03 | 0.41 | 0.08 | 95 | 999.6 |
| 20260505110526 | 21 | 164 | 9.7 | 14.5 | 0.03 | 0.41 | 0.08 | 94 | 999.6 |
| 20260505110425 | 21 | 175 | 8.0 | 14.5 | 0.03 | 0.41 | 0.08 | 94 | 999.6 |
| 20260505110328 | 21 | 197 | 8.0 | 14.5 | 0.03 | 0.41 | 0.08 | 94 | 999.6 |
| 20260505110226 | 21 | 185 | 9.7 | 14.5 | 0.03 | 0.41 | 0.08 | 94 | 999.6 |
| 20260505110125 | 21 | 182 | 9.7 | 14.5 | 0.03 | 0.41 | 0.08 | 94 | 999.7 |
| 20260505102203 | 21 | 171 | 8.0 | 17.7 | 0.00 | 0.38 | 0.05 | 94 | 1000.0 |
| 20260505102102 | 21 | 197 | 8.0 | 17.7 | 0.00 | 0.38 | 0.05 | 94 | 1000.0 |
| 20260505102003 | 21 | 179 | 6.4 | 17.7 | 0.00 | 0.38 | 0.05 | 94 | 999.9 |
| 20260505101902 | 21 | 178 | 6.4 | 17.7 | 0.00 | 0.38 | 0.05 | 94 | 999.9 |
| 20260505101803 | 21 | 189 | 8.0 | 17.7 | 0.00 | 0.38 | 0.05 | 94 | 999.9 |
| 20260505101702 | 21 | 176 | 9.7 | 17.7 | 0.00 | 0.38 | 0.05 | 94 | 999.9 |
| 20260505101602 | 21 | 190 | 8.0 | 17.7 | 0.00 | 0.38 | 0.05 | 94 | 999.9 |
| 20260505101504 | 21 | 176 | 9.7 | 17.7 | 0.00 | 0.38 | 0.05 | 94 | 999.9 |
| 20260505101402 | 21 | 186 | 11.3 | 17.7 | 0.00 | 0.38 | 0.05 | 94 | 1000.0 |
| 20260505101302 | 21 | 188 | 9.7 | 17.7 | 0.00 | 0.38 | 0.05 | 94 | 1000.0 |
| 20260505101203 | 21 | 193 | 9.7 | 17.7 | 0.00 | 0.38 | 0.05 | 94 | 999.9 |
| 20260505101102 | 21 | 179 | 9.7 | 17.7 | 0.00 | 0.38 | 0.05 | 94 | 999.8 |
| 20260505101003 | 21 | 186 | 11.3 | 17.7 | 0.00 | 0.38 | 0.05 | 94 | 999.9 |
| 20260505100902 | 21 | 197 | 11.3 | 17.7 | 0.00 | 0.38 | 0.05 | 94 | 999.8 |
| 20260505100803 | 21 | 155 | 9.7 | 19.3 | 0.00 | 0.38 | 0.05 | 94 | 999.7 |
| 20260505100701 | 21 | 171 | 11.3 | 19.3 | 0.00 | 0.38 | 0.05 | 94 | 999.7 |
| 20260505100600 | 21 | 180 | 11.3 | 19.3 | 0.00 | 0.38 | 0.05 | 94 | 999.7 |
| 20260505100458 | 21 | 188 | 9.7 | 19.3 | 0.00 | 0.38 | 0.05 | 94 | 999.7 |
| 20260505100357 | 21 | 179 | 9.7 | 19.3 | 0.00 | 0.38 | 0.05 | 94 | 999.7 |
| 20260505100255 | 21 | 169 | 9.7 | 19.3 | 0.00 | 0.38 | 0.05 | 94 | 999.7 |
| 20260505100154 | 21 | 190 | 9.7 | 19.3 | 0.00 | 0.38 | 0.05 | 94 | 999.6 |
| 20260505100052 | 21 | 193 | 11.3 | 19.3 | 0.00 | 0.38 | 0.05 | 94 | 999.7 |
| 20260505095951 | 21 | 188 | 11.3 | 19.3 | 0.00 | 0.38 | 0.05 | 94 | 999.7 |
| 20260505095849 | 21 | 159 | 9.7 | 16.1 | 0.00 | 0.38 | 0.05 | 94 | 999.7 |
| 20260505095748 | 21 | 155 | 11.3 | 16.1 | 0.00 | 0.38 | 0.05 | 94 | 999.8 |
| 20260505095645 | 21 | 172 | 11.3 | 16.1 | 0.00 | 0.41 | 0.05 | 94 | 999.8 |
| 20260505095544 | 21 | 185 | 9.7 | 16.1 | 0.00 | 0.41 | 0.05 | 94 | 999.7 |
| 20260505095443 | 21 | 179 | 9.7 | 16.1 | 0.00 | 0.41 | 0.05 | 94 | 999.8 |
| 20260505095342 | 21 | 183 | 6.4 | 14.5 | 0.00 | 0.41 | 0.05 | 94 | 999.8 |
| 20260505095241 | 21 | 192 | 6.4 | 14.5 | 0.00 | 0.41 | 0.05 | 94 | 999.9 |
| 20260505095135 | 21 | 182 | 9.7 | 14.5 | 0.00 | 0.41 | 0.05 | 94 | 999.9 |
| 20260505095033 | 21 | 183 | 8.0 | 14.5 | 0.00 | 0.41 | 0.05 | 94 | 999.9 |
| 20260505094932 | 21 | 180 | 8.0 | 11.3 | 0.00 | 0.41 | 0.05 | 94 | 999.9 |
| 20260505094830 | 21 | 169 | 8.0 | 11.3 | 0.00 | 0.41 | 0.05 | 94 | 999.9 |
| 20260505094732 | 21 | 183 | 6.4 | 11.3 | 0.00 | 0.41 | 0.05 | 94 | 999.9 |
| 20260505094632 | 21 | 189 | 6.4 | 11.3 | 0.00 | 0.41 | 0.05 | 94 | 1000.0 |
| 20260505094532 | 21 | 178 | 8.0 | 11.3 | 0.00 | 0.41 | 0.05 | 94 | 1000.0 |
| 20260505094431 | 21 | 192 | 6.4 | 11.3 | 0.00 | 0.41 | 0.05 | 94 | 1000.0 |
| 20260505094332 | 21 | 189 | 6.4 | 11.3 | 0.00 | 0.41 | 0.05 | 94 | 999.9 |
| 20260505094231 | 21 | 189 | 6.4 | 11.3 | 0.00 | 0.41 | 0.05 | 94 | 1000.0 |
| 20260505094131 | 21 | 183 | 6.4 | 11.3 | 0.00 | 0.41 | 0.05 | 94 | 1000.0 |
| 20260505094032 | 21 | 196 | 6.4 | 11.3 | 0.00 | 0.41 | 0.05 | 94 | 1000.0 |
| 20260505093931 | 21 | 183 | 8.0 | 14.5 | 0.00 | 0.41 | 0.05 | 94 | 1000.0 |
| 20260505093830 | 21 | 199 | 6.4 | 14.5 | 0.00 | 0.41 | 0.05 | 94 | 1000.0 |
| 20260505093731 | 21 | 179 | 8.0 | 14.5 | 0.00 | 0.41 | 0.05 | 94 | 1000.1 |
| 20260505093632 | 21 | 204 | 8.0 | 14.5 | 0.00 | 0.41 | 0.05 | 94 | 1000.1 |
| 20260505093532 | 21 | 209 | 9.7 | 14.5 | 0.00 | 0.41 | 0.05 | 94 | 999.9 |
| 20260505093431 | 21 | 192 | 8.0 | 14.5 | 0.00 | 0.41 | 0.05 | 94 | 1000.0 |
| 20260505093332 | 21 | 183 | 8.0 | 14.5 | 0.00 | 0.41 | 0.05 | 94 | 1000.0 |
| 20260505093230 | 21 | 183 | 9.7 | 14.5 | 0.00 | 0.41 | 0.05 | 94 | 1000.0 |
| 20260505093131 | 21 | 188 | 8.0 | 14.5 | 0.00 | 0.41 | 0.05 | 94 | 1000.0 |
| 20260505093031 | 21 | 192 | 6.4 | 14.5 | 0.00 | 0.41 | 0.05 | 94 | 1000.1 |
| 20260505092932 | 20 | 192 | 8.0 | 11.3 | 0.00 | 0.41 | 0.05 | 94 | 999.9 |
| 20260505092831 | 21 | 185 | 8.0 | 11.3 | 0.00 | 0.41 | 0.05 | 94 | 1000.0 |
| 20260505092731 | 20 | 183 | 8.0 | 11.3 | 0.00 | 0.41 | 0.05 | 94 | 999.9 |
| 20260505092632 | 20 | 183 | 8.0 | 14.5 | 0.00 | 0.41 | 0.05 | 94 | 999.8 |
| 20260505092531 | 20 | 179 | 8.0 | 14.5 | 0.00 | 0.41 | 0.05 | 94 | 999.9 |
| 20260505092431 | 20 | 202 | 8.0 | 14.5 | 0.00 | 0.41 | 0.05 | 94 | 1000.0 |
| 20260505092332 | 20 | 175 | 8.0 | 14.5 | 0.00 | 0.41 | 0.05 | 94 | 999.9 |
| 20260505092231 | 20 | 188 | 8.0 | 14.5 | 0.00 | 0.41 | 0.05 | 94 | 999.8 |
| 20260505092131 | 20 | 188 | 8.0 | 14.5 | 0.00 | 0.41 | 0.05 | 94 | 999.9 |
| 20260505092031 | 20 | 190 | 8.0 | 14.5 | 0.00 | 0.41 | 0.05 | 94 | 999.9 |
| 20260505091932 | 20 | 180 | 8.0 | 14.5 | 0.03 | 0.41 | 0.05 | 93 | 1000.0 |
| 20260505091831 | 20 | 186 | 8.0 | 14.5 | 0.03 | 0.41 | 0.05 | 93 | 1000.0 |
| 20260505091731 | 20 | 180 | 8.0 | 14.5 | 0.03 | 0.41 | 0.05 | 93 | 1000.0 |
| 20260505091630 | 20 | 189 | 6.4 | 14.5 | 0.03 | 0.41 | 0.05 | 93 | 1000.1 |
| 20260505091531 | 20 | 189 | 6.4 | 14.5 | 0.03 | 0.41 | 0.05 | 93 | 1000.1 |
| 20260505091431 | 21 | 172 | 6.4 | 14.5 | 0.03 | 0.41 | 0.05 | 93 | 1000.0 |
| 20260505091331 | 20 | 186 | 6.4 | 14.5 | 0.03 | 0.41 | 0.05 | 93 | 1000.1 |
| 20260505091231 | 20 | 185 | 8.0 | 14.5 | 0.03 | 0.41 | 0.05 | 93 | 1000.0 |
| 20260505091132 | 20 | 182 | 8.0 | 14.5 | 0.03 | 0.41 | 0.05 | 93 | 1000.2 |
| 20260505091032 | 20 | 183 | 6.4 | 14.5 | 0.03 | 0.41 | 0.05 | 93 | 1000.2 |
| 20260505090932 | 20 | 195 | 8.0 | 14.5 | 0.03 | 0.41 | 0.05 | 93 | 1000.2 |
| 20260505090831 | 20 | 178 | 9.7 | 14.5 | 0.03 | 0.41 | 0.05 | 93 | 1000.1 |
| 20260505090731 | 20 | 185 | 9.7 | 14.5 | 0.03 | 0.41 | 0.05 | 93 | 1000.1 |
| 20260505090631 | 20 | 189 | 8.0 | 14.5 | 0.03 | 0.41 | 0.05 | 93 | 1000.1 |
| 20260505090531 | 20 | 192 | 8.0 | 14.5 | 0.03 | 0.41 | 0.05 | 93 | 1000.1 |
| 20260505090429 | 20 | 180 | 9.7 | 14.5 | 0.03 | 0.41 | 0.05 | 93 | 1000.1 |
| 20260505090328 | 21 | 199 | 8.0 | 14.5 | 0.03 | 0.41 | 0.05 | 93 | 1000.1 |
| 20260505090227 | 20 | 200 | 8.0 | 14.5 | 0.03 | 0.41 | 0.05 | 93 | 1000.1 |
| 20260505090126 | 20 | 186 | 8.0 | 14.5 | 0.03 | 0.41 | 0.05 | 93 | 1000.1 |
| 20260505090024 | 21 | 185 | 8.0 | 14.5 | 0.03 | 0.41 | 0.05 | 93 | 1000.1 |
| 20260505085922 | 21 | 182 | 8.0 | 14.5 | 0.03 | 0.41 | 0.05 | 93 | 1000.1 |
| 20260505085823 | 21 | 183 | 6.4 | 14.5 | 0.03 | 0.41 | 0.05 | 93 | 1000.1 |
| 20260505085723 | 21 | 183 | 8.0 | 14.5 | 0.03 | 0.41 | 0.05 | 93 | 1000.2 |
| 20260505085624 | 20 | 183 | 9.7 | 14.5 | 0.03 | 0.41 | 0.05 | 93 | 1000.2 |
| 20260505085522 | 21 | 185 | 9.7 | 14.5 | 0.03 | 0.41 | 0.05 | 93 | 1000.2 |
| 20260505085423 | 21 | 197 | 8.0 | 14.5 | 0.03 | 0.41 | 0.05 | 93 | 1000.2 |
| 20260505085324 | 20 | 190 | 8.0 | 11.3 | 0.03 | 0.41 | 0.05 | 93 | 1000.2 |
| 20260505085222 | 21 | 192 | 8.0 | 11.3 | 0.03 | 0.41 | 0.05 | 93 | 1000.2 |
| 20260505085122 | 20 | 186 | 6.4 | 9.7 | 0.03 | 0.41 | 0.05 | 93 | 1000.3 |
| 20260505085022 | 20 | 186 | 4.8 | 9.7 | 0.03 | 0.41 | 0.05 | 93 | 1000.3 |
| 20260505084924 | 20 | 193 | 4.8 | 11.3 | 0.03 | 0.41 | 0.05 | 93 | 1000.3 |
| 20260505084824 | 20 | 197 | 4.8 | 11.3 | 0.03 | 0.41 | 0.05 | 93 | 1000.3 |
| 20260505084722 | 20 | 200 | 6.4 | 11.3 | 0.03 | 0.41 | 0.05 | 93 | 1000.2 |
| 20260505084623 | 20 | 200 | 4.8 | 11.3 | 0.03 | 0.41 | 0.05 | 93 | 1000.2 |
| 20260505084522 | 20 | 186 | 3.2 | 11.3 | 0.03 | 0.41 | 0.05 | 93 | 1000.2 |
| 20260505084422 | 20 | 189 | 4.8 | 11.3 | 0.03 | 0.41 | 0.05 | 93 | 1000.2 |
| 20260505084322 | 20 | 190 | 6.4 | 14.5 | 0.03 | 0.41 | 0.05 | 93 | 1000.2 |
| 20260505084224 | 20 | 212 | 6.4 | 14.5 | 0.03 | 0.41 | 0.05 | 93 | 1000.1 |
| 20260505084122 | 20 | 207 | 6.4 | 14.5 | 0.03 | 0.41 | 0.05 | 93 | 1000.1 |
| 20260505084022 | 20 | 175 | 8.0 | 14.5 | 0.03 | 0.41 | 0.05 | 93 | 1000.2 |
| 20260505083923 | 20 | 180 | 6.4 | 14.5 | 0.03 | 0.41 | 0.05 | 93 | 1000.2 |
| 20260505083824 | 20 | 188 | 6.4 | 14.5 | 0.03 | 0.41 | 0.05 | 93 | 1000.2 |
| 20260505083722 | 20 | 183 | 6.4 | 14.5 | 0.03 | 0.41 | 0.05 | 93 | 1000.2 |
| 20260505083624 | 20 | 203 | 6.4 | 14.5 | 0.03 | 0.41 | 0.05 | 93 | 1000.3 |
| 20260505083522 | 20 | 183 | 8.0 | 14.5 | 0.03 | 0.41 | 0.05 | 93 | 1000.3 |
| 20260505083421 | 20 | 188 | 8.0 | 14.5 | 0.03 | 0.41 | 0.05 | 93 | 1000.3 |
| 20260505083319 | 20 | 186 | 6.4 | 14.5 | 0.03 | 0.41 | 0.05 | 93 | 1000.2 |
| 20260505083218 | 20 | 182 | 8.0 | 14.5 | 0.03 | 0.41 | 0.05 | 93 | 1000.3 |
| 20260505083115 | 20 | 192 | 8.0 | 14.5 | 0.03 | 0.41 | 0.05 | 93 | 1000.4 |
| 20260505083015 | 20 | 178 | 6.4 | 14.5 | 0.03 | 0.41 | 0.05 | 93 | 1000.4 |
| 20260505082913 | 20 | 196 | 6.4 | 14.5 | 0.03 | 0.41 | 0.05 | 93 | 1000.3 |
| 20260505082812 | 20 | 190 | 8.0 | 14.5 | 0.03 | 0.41 | 0.05 | 93 | 1000.4 |
| 20260505082710 | 20 | 196 | 9.7 | 14.5 | 0.03 | 0.43 | 0.05 | 93 | 1000.3 |
| 20260505082609 | 20 | 189 | 9.7 | 11.3 | 0.03 | 0.43 | 0.05 | 92 | 1000.3 |
| 20260505082504 | 20 | 195 | 8.0 | 11.3 | 0.03 | 0.43 | 0.05 | 92 | 1000.3 |
| 20260505082404 | 20 | 195 | 8.0 | 11.3 | 0.03 | 0.43 | 0.05 | 92 | 1000.2 |
| 20260505082304 | 20 | 195 | 8.0 | 11.3 | 0.03 | 0.43 | 0.05 | 92 | 1000.4 |
| 20260505082203 | 20 | 195 | 8.0 | 11.3 | 0.03 | 0.43 | 0.05 | 92 | 1000.4 |
| 20260505082103 | 20 | 192 | 6.4 | 11.3 | 0.03 | 0.43 | 0.05 | 92 | 1000.4 |
| 20260505082002 | 20 | 189 | 6.4 | 11.3 | 0.03 | 0.41 | 0.03 | 92 | 1000.4 |
| 20260505081904 | 20 | 188 | 6.4 | 11.3 | 0.00 | 0.41 | 0.03 | 92 | 1000.5 |
| 20260505081802 | 20 | 188 | 6.4 | 11.3 | 0.00 | 0.41 | 0.03 | 92 | 1000.5 |
| 20260505081702 | 20 | 202 | 6.4 | 11.3 | 0.00 | 0.41 | 0.03 | 92 | 1000.5 |
| 20260505081602 | 21 | 179 | 8.0 | 11.3 | 0.00 | 0.41 | 0.03 | 92 | 1000.5 |
| 20260505081504 | 21 | 183 | 8.0 | 11.3 | 0.00 | 0.41 | 0.03 | 92 | 1000.6 |
| 20260505081402 | 21 | 192 | 6.4 | 11.3 | 0.00 | 0.41 | 0.03 | 92 | 1000.6 |
| 20260505081302 | 21 | 189 | 4.8 | 14.5 | 0.00 | 0.41 | 0.03 | 92 | 1000.6 |
| 20260505081204 | 21 | 180 | 4.8 | 14.5 | 0.00 | 0.41 | 0.03 | 92 | 1000.6 |
| 20260505081102 | 21 | 190 | 6.4 | 14.5 | 0.00 | 0.41 | 0.03 | 92 | 1000.6 |
| 20260505081003 | 21 | 182 | 6.4 | 14.5 | 0.00 | 0.41 | 0.03 | 92 | 1000.6 |
| 20260505080902 | 21 | 183 | 6.4 | 14.5 | 0.00 | 0.41 | 0.03 | 92 | 1000.7 |
| 20260505080803 | 21 | 193 | 6.4 | 14.5 | 0.00 | 0.41 | 0.03 | 92 | 1000.6 |
| 20260505080702 | 21 | 180 | 8.0 | 14.5 | 0.00 | 0.41 | 0.03 | 92 | 1000.7 |
| 20260505080603 | 21 | 186 | 6.4 | 14.5 | 0.00 | 0.41 | 0.03 | 92 | 1000.6 |
| 20260505080505 | 21 | 197 | 6.4 | 14.5 | 0.00 | 0.41 | 0.03 | 92 | 1000.6 |
| 20260505080402 | 21 | 185 | 6.4 | 14.5 | 0.00 | 0.41 | 0.03 | 92 | 1000.5 |
| 20260505080303 | 21 | 189 | 6.4 | 14.5 | 0.00 | 0.41 | 0.03 | 92 | 1000.5 |
| 20260505080203 | 21 | 199 | 8.0 | 14.5 | 0.00 | 0.41 | 0.03 | 92 | 1000.5 |
| 20260505080103 | 21 | 182 | 6.4 | 14.5 | 0.00 | 0.41 | 0.03 | 92 | 1000.6 |
| 20260505080003 | 21 | 183 | 6.4 | 14.5 | 0.00 | 0.41 | 0.03 | 92 | 1000.6 |
| 20260505075902 | 21 | 192 | 4.8 | 14.5 | 0.00 | 0.41 | 0.03 | 92 | 1000.6 |
| 20260505075802 | 21 | 188 | 6.4 | 14.5 | 0.00 | 0.41 | 0.03 | 92 | 1000.6 |
| 20260505075702 | 21 | 196 | 6.4 | 14.5 | 0.00 | 0.41 | 0.03 | 92 | 1000.7 |
| 20260505075603 | 21 | 173 | 8.0 | 14.5 | 0.00 | 0.41 | 0.03 | 92 | 1000.6 |
| 20260505075504 | 21 | 185 | 8.0 | 14.5 | 0.00 | 0.41 | 0.03 | 92 | 1000.7 |
| 20260505075403 | 21 | 186 | 6.4 | 14.5 | 0.00 | 0.41 | 0.03 | 92 | 1000.7 |
| 20260505075304 | 21 | 196 | 6.4 | 11.3 | 0.00 | 0.41 | 0.03 | 92 | 1000.8 |
| 20260505075202 | 21 | 200 | 6.4 | 11.3 | 0.00 | 0.41 | 0.03 | 92 | 1000.8 |
| 20260505075103 | 21 | 176 | 8.0 | 14.5 | 0.00 | 0.41 | 0.03 | 92 | 1000.9 |
| 20260505075002 | 21 | 182 | 8.0 | 14.5 | 0.00 | 0.41 | 0.03 | 92 | 1000.8 |
| 20260505074902 | 21 | 199 | 6.4 | 14.5 | 0.00 | 0.41 | 0.03 | 92 | 1000.9 |
| 20260505074803 | 21 | 173 | 6.4 | 14.5 | 0.00 | 0.41 | 0.03 | 91 | 1000.9 |
| 20260505074702 | 21 | 173 | 6.4 | 14.5 | 0.00 | 0.41 | 0.03 | 91 | 1000.8 |
| 20260505074602 | 21 | 172 | 8.0 | 14.5 | 0.00 | 0.41 | 0.03 | 91 | 1000.8 |
| 20260505074504 | 21 | 202 | 6.4 | 14.5 | 0.00 | 0.41 | 0.03 | 91 | 1000.9 |
| 20260505074402 | 21 | 197 | 6.4 | 14.5 | 0.00 | 0.41 | 0.03 | 91 | 1000.7 |
| 20260505074302 | 21 | 197 | 8.0 | 14.5 | 0.00 | 0.41 | 0.03 | 91 | 1000.8 |
| 20260505074202 | 21 | 175 | 8.0 | 14.5 | 0.00 | 0.41 | 0.03 | 91 | 1000.8 |
| 20260505074103 | 21 | 182 | 8.0 | 11.3 | 0.00 | 0.41 | 0.03 | 91 | 1000.8 |
| 20260505074002 | 21 | 176 | 8.0 | 11.3 | 0.00 | 0.41 | 0.03 | 91 | 1000.9 |
| 20260505073902 | 21 | 183 | 6.4 | 11.3 | 0.00 | 0.41 | 0.03 | 91 | 1000.8 |
| 20260505073803 | 21 | 192 | 6.4 | 11.3 | 0.00 | 0.41 | 0.03 | 91 | 1000.8 |
| 20260505073703 | 21 | 200 | 6.4 | 11.3 | 0.00 | 0.41 | 0.03 | 91 | 1000.7 |
| 20260505073602 | 21 | 180 | 8.0 | 11.3 | 0.00 | 0.41 | 0.03 | 91 | 1000.7 |
| 20260505073502 | 21 | 171 | 8.0 | 11.3 | 0.00 | 0.41 | 0.03 | 91 | 1000.8 |
| 20260505073403 | 21 | 193 | 6.4 | 11.3 | 0.00 | 0.41 | 0.03 | 91 | 1000.8 |
| 20260505073302 | 21 | 178 | 6.4 | 14.5 | 0.00 | 0.41 | 0.03 | 91 | 1000.8 |
| 20260505073203 | 21 | 182 | 6.4 | 14.5 | 0.00 | 0.41 | 0.03 | 91 | 1000.9 |
| 20260505073103 | 21 | 186 | 6.4 | 14.5 | 0.00 | 0.41 | 0.03 | 91 | 1000.9 |
| 20260505073002 | 21 | 166 | 8.0 | 14.5 | 0.00 | 0.41 | 0.03 | 91 | 1000.9 |
| 20260505072902 | 21 | 182 | 8.0 | 14.5 | 0.00 | 0.41 | 0.03 | 91 | 1000.9 |
| 20260505072804 | 21 | 192 | 8.0 | 14.5 | 0.00 | 0.41 | 0.03 | 91 | 1000.9 |
| 20260505072702 | 21 | 186 | 8.0 | 14.5 | 0.00 | 0.41 | 0.03 | 91 | 1000.9 |
| 20260505072603 | 21 | 185 | 8.0 | 14.5 | 0.00 | 0.41 | 0.03 | 91 | 1000.9 |
| 20260505072503 | 21 | 178 | 9.7 | 14.5 | 0.00 | 0.41 | 0.03 | 91 | 1000.9 |
| 20260505072404 | 21 | 193 | 9.7 | 14.5 | 0.00 | 0.41 | 0.03 | 91 | 1000.9 |
| 20260505072305 | 21 | 173 | 9.7 | 14.5 | 0.00 | 0.41 | 0.03 | 91 | 1000.9 |
| 20260505072202 | 21 | 200 | 9.7 | 14.5 | 0.00 | 0.41 | 0.03 | 91 | 1000.8 |
| 20260505072104 | 21 | 172 | 9.7 | 14.5 | 0.00 | 0.41 | 0.03 | 91 | 1000.8 |
| 20260505072002 | 21 | 190 | 9.7 | 14.5 | 0.00 | 0.41 | 0.03 | 91 | 1000.8 |
| 20260505071903 | 21 | 188 | 9.7 | 14.5 | 0.00 | 0.41 | 0.03 | 91 | 1000.9 |
| 20260505071802 | 21 | 176 | 8.0 | 11.3 | 0.00 | 0.41 | 0.03 | 91 | 1000.9 |
| 20260505071703 | 21 | 173 | 8.0 | 11.3 | 0.00 | 0.41 | 0.03 | 91 | 1000.9 |
| 20260505071602 | 21 | 183 | 6.4 | 11.3 | 0.00 | 0.41 | 0.03 | 91 | 1000.9 |
| 20260505071502 | 21 | 189 | 6.4 | 11.3 | 0.00 | 0.41 | 0.03 | 91 | 1001.0 |
| 20260505071359 | 21 | 190 | 6.4 | 14.5 | 0.00 | 0.41 | 0.03 | 91 | 1000.9 |
| 20260505071258 | 21 | 182 | 6.4 | 14.5 | 0.00 | 0.41 | 0.03 | 91 | 1000.9 |
| 20260505071157 | 21 | 180 | 6.4 | 14.5 | 0.00 | 0.41 | 0.03 | 91 | 1001.0 |
| 20260505071055 | 21 | 183 | 8.0 | 14.5 | 0.00 | 0.41 | 0.03 | 91 | 1001.1 |
| 20260505070953 | 21 | 179 | 8.0 | 14.5 | 0.00 | 0.41 | 0.03 | 91 | 1001.0 |
| 20260505070852 | 21 | 195 | 9.7 | 14.5 | 0.00 | 0.41 | 0.03 | 91 | 1001.0 |
| 20260505070751 | 21 | 173 | 8.0 | 14.5 | 0.00 | 0.43 | 0.03 | 91 | 1001.1 |
| 20260505070649 | 21 | 193 | 6.4 | 14.5 | 0.00 | 0.43 | 0.03 | 91 | 1001.1 |
| 20260505070549 | 21 | 166 | 9.7 | 14.5 | 0.00 | 0.43 | 0.03 | 91 | 1001.1 |
| 20260505070447 | 21 | 195 | 9.7 | 14.5 | 0.00 | 0.43 | 0.03 | 91 | 1001.1 |
| 20260505070343 | 21 | 188 | 8.0 | 16.1 | 0.00 | 0.43 | 0.03 | 91 | 1001.1 |
| 20260505070242 | 21 | 193 | 8.0 | 16.1 | 0.00 | 0.43 | 0.03 | 91 | 1001.1 |
| 20260505070140 | 21 | 189 | 8.0 | 16.1 | 0.03 | 0.43 | 0.03 | 91 | 1001.0 |
| 20260505070040 | 21 | 183 | 8.0 | 16.1 | 0.03 | 0.43 | 0.03 | 91 | 1001.0 |
| 20260505065938 | 21 | 175 | 8.0 | 16.1 | 0.03 | 0.43 | 0.03 | 91 | 1001.0 |
| 20260505065839 | 21 | 197 | 9.7 | 16.1 | 0.03 | 0.43 | 0.03 | 91 | 1001.0 |
| 20260505065735 | 21 | 166 | 9.7 | 16.1 | 0.03 | 0.43 | 0.03 | 91 | 1001.0 |
| 20260505065634 | 21 | 182 | 8.0 | 16.1 | 0.03 | 0.43 | 0.03 | 91 | 1001.0 |
| 20260505065532 | 21 | 185 | 9.7 | 16.1 | 0.03 | 0.43 | 0.03 | 91 | 1001.0 |
| 20260505065430 | 21 | 199 | 8.0 | 16.1 | 0.03 | 0.43 | 0.03 | 91 | 1001.0 |
| 20260505065331 | 21 | 180 | 8.0 | 16.1 | 0.03 | 0.43 | 0.03 | 91 | 1001.1 |
| 20260505065232 | 21 | 199 | 8.0 | 16.1 | 0.03 | 0.43 | 0.03 | 91 | 1001.0 |
| 20260505065131 | 21 | 176 | 8.0 | 16.1 | 0.03 | 0.43 | 0.03 | 91 | 1001.1 |
| 20260505065031 | 21 | 186 | 9.7 | 16.1 | 0.03 | 0.43 | 0.03 | 90 | 1001.1 |
| 20260505064932 | 21 | 178 | 9.7 | 16.1 | 0.03 | 0.43 | 0.03 | 90 | 1001.1 |
| 20260505064830 | 21 | 183 | 9.7 | 16.1 | 0.03 | 0.43 | 0.03 | 90 | 1001.2 |
| 20260505064731 | 21 | 193 | 8.0 | 16.1 | 0.03 | 0.43 | 0.03 | 90 | 1001.1 |
| 20260505064632 | 21 | 166 | 6.4 | 17.7 | 0.03 | 0.43 | 0.03 | 90 | 1001.1 |
| 20260505064531 | 21 | 165 | 9.7 | 17.7 | 0.03 | 0.43 | 0.03 | 90 | 1001.1 |
| 20260505064431 | 21 | 175 | 11.3 | 17.7 | 0.03 | 0.43 | 0.03 | 90 | 1001.1 |
| 20260505064331 | 21 | 197 | 9.7 | 19.3 | 0.03 | 0.43 | 0.03 | 90 | 1001.2 |
| 20260505064232 | 21 | 183 | 6.4 | 19.3 | 0.03 | 0.43 | 0.03 | 90 | 1001.2 |
| 20260505064132 | 21 | 200 | 8.0 | 19.3 | 0.03 | 0.43 | 0.03 | 90 | 1001.2 |
| 20260505064031 | 21 | 189 | 9.7 | 19.3 | 0.03 | 0.43 | 0.03 | 90 | 1001.1 |
| 20260505063933 | 21 | 186 | 9.7 | 19.3 | 0.03 | 0.43 | 0.03 | 90 | 1001.1 |
| 20260505063831 | 21 | 179 | 11.3 | 19.3 | 0.03 | 0.43 | 0.03 | 90 | 1001.0 |
| 20260505063731 | 21 | 195 | 12.9 | 19.3 | 0.03 | 0.43 | 0.03 | 90 | 1001.1 |
| 20260505063632 | 21 | 183 | 11.3 | 19.3 | 0.03 | 0.43 | 0.03 | 90 | 1001.0 |
| 20260505063532 | 21 | 179 | 11.3 | 19.3 | 0.03 | 0.43 | 0.03 | 90 | 1001.1 |
| 20260505063431 | 21 | 175 | 11.3 | 19.3 | 0.03 | 0.43 | 0.03 | 90 | 1001.1 |
| 20260505063331 | 21 | 179 | 9.7 | 19.3 | 0.03 | 0.43 | 0.03 | 90 | 1001.1 |
| 20260505063232 | 21 | 186 | 9.7 | 19.3 | 0.03 | 0.43 | 0.03 | 90 | 1001.1 |
| 20260505063132 | 21 | 189 | 9.7 | 19.3 | 0.03 | 0.43 | 0.03 | 90 | 1001.2 |
| 20260505063031 | 21 | 190 | 8.0 | 19.3 | 0.03 | 0.43 | 0.03 | 90 | 1001.2 |
| 20260505062932 | 21 | 175 | 9.7 | 19.3 | 0.03 | 0.43 | 0.03 | 90 | 1001.1 |
| 20260505062831 | 21 | 180 | 9.7 | 19.3 | 0.03 | 0.43 | 0.03 | 90 | 1001.3 |
| 20260505062731 | 21 | 185 | 11.3 | 19.3 | 0.03 | 0.43 | 0.03 | 90 | 1001.3 |
| 20260505062630 | 21 | 190 | 12.9 | 19.3 | 0.03 | 0.43 | 0.03 | 90 | 1001.3 |
| 20260505062533 | 21 | 179 | 11.3 | 17.7 | 0.03 | 0.43 | 0.03 | 90 | 1001.3 |
| 20260505062431 | 21 | 185 | 9.7 | 17.7 | 0.03 | 0.43 | 0.03 | 90 | 1001.3 |
| 20260505062331 | 21 | 197 | 9.7 | 17.7 | 0.03 | 0.43 | 0.03 | 90 | 1001.2 |
| 20260505062232 | 21 | 188 | 8.0 | 17.7 | 0.03 | 0.43 | 0.03 | 90 | 1001.3 |
| 20260505062132 | 21 | 192 | 11.3 | 17.7 | 0.03 | 0.43 | 0.03 | 90 | 1001.3 |
| 20260505062032 | 21 | 192 | 11.3 | 17.7 | 0.03 | 0.43 | 0.03 | 90 | 1001.3 |
| 20260505061932 | 21 | 192 | 11.3 | 17.7 | 0.03 | 0.43 | 0.03 | 90 | 1001.4 |
| 20260505061832 | 21 | 192 | 11.3 | 17.7 | 0.03 | 0.43 | 0.03 | 90 | 1001.2 |
| 20260505061732 | 21 | 185 | 11.3 | 17.7 | 0.03 | 0.43 | 0.03 | 90 | 1001.3 |
| 20260505061631 | 21 | 175 | 11.3 | 17.7 | 0.03 | 0.43 | 0.03 | 90 | 1001.4 |
| 20260505061533 | 21 | 189 | 12.9 | 17.7 | 0.03 | 0.43 | 0.03 | 89 | 1001.4 |
| 20260505061431 | 21 | 186 | 11.3 | 17.7 | 0.03 | 0.43 | 0.03 | 89 | 1001.4 |
| 20260505061332 | 21 | 200 | 11.3 | 17.7 | 0.03 | 0.43 | 0.03 | 89 | 1001.4 |
| 20260505061231 | 21 | 196 | 11.3 | 17.7 | 0.03 | 0.43 | 0.03 | 89 | 1001.4 |
| 20260505061132 | 21 | 200 | 9.7 | 17.7 | 0.03 | 0.43 | 0.03 | 89 | 1001.4 |
| 20260505061032 | 21 | 195 | 9.7 | 17.7 | 0.03 | 0.43 | 0.03 | 89 | 1001.4 |
| 20260505060931 | 21 | 182 | 9.7 | 17.7 | 0.03 | 0.43 | 0.03 | 89 | 1001.4 |
| 20260505060832 | 21 | 190 | 11.3 | 17.7 | 0.03 | 0.43 | 0.03 | 89 | 1001.5 |
| 20260505060731 | 21 | 195 | 12.9 | 17.7 | 0.03 | 0.43 | 0.03 | 89 | 1001.6 |
| 20260505060630 | 21 | 197 | 11.3 | 16.1 | 0.03 | 0.43 | 0.03 | 89 | 1001.6 |
| 20260505060531 | 21 | 178 | 11.3 | 16.1 | 0.03 | 0.43 | 0.03 | 89 | 1001.6 |
| 20260505060431 | 21 | 193 | 9.7 | 16.1 | 0.03 | 0.43 | 0.03 | 89 | 1001.6 |
| 20260505060331 | 21 | 188 | 9.7 | 16.1 | 0.03 | 0.43 | 0.03 | 89 | 1001.7 |
| 20260505060232 | 21 | 182 | 11.3 | 16.1 | 0.03 | 0.43 | 0.03 | 89 | 1001.7 |
| 20260505060131 | 21 | 183 | 9.7 | 16.1 | 0.00 | 0.41 | 0.00 | 89 | 1001.7 |
| 20260505060032 | 21 | 175 | 9.7 | 14.5 | 0.00 | 0.41 | 0.00 | 89 | 1001.7 |
| 20260505055932 | 21 | 193 | 9.7 | 16.1 | 0.00 | 0.41 | 0.00 | 89 | 1001.7 |
| 20260505055832 | 21 | 202 | 9.7 | 16.1 | 0.00 | 0.41 | 0.00 | 89 | 1001.7 |
| 20260505055731 | 21 | 183 | 8.0 | 16.1 | 0.00 | 0.41 | 0.00 | 89 | 1001.7 |
| 20260505055631 | 21 | 193 | 9.7 | 16.1 | 0.00 | 0.41 | 0.00 | 89 | 1001.7 |
| 20260505055531 | 21 | 185 | 9.7 | 16.1 | 0.00 | 0.41 | 0.00 | 89 | 1001.7 |
| 20260505055432 | 21 | 173 | 9.7 | 16.1 | 0.00 | 0.41 | 0.00 | 89 | 1001.6 |
| 20260505055330 | 21 | 196 | 8.0 | 16.1 | 0.00 | 0.41 | 0.00 | 89 | 1001.6 |
| 20260505055231 | 21 | 172 | 8.0 | 16.1 | 0.00 | 0.41 | 0.00 | 89 | 1001.6 |
| 20260505055132 | 21 | 186 | 8.0 | 16.1 | 0.00 | 0.41 | 0.00 | 89 | 1001.5 |
| 20260505055031 | 21 | 183 | 8.0 | 16.1 | 0.00 | 0.41 | 0.00 | 89 | 1001.5 |
| 20260505054930 | 21 | 172 | 9.7 | 16.1 | 0.00 | 0.41 | 0.00 | 89 | 1001.6 |
| 20260505054831 | 21 | 159 | 9.7 | 16.1 | 0.00 | 0.41 | 0.00 | 89 | 1001.4 |
| 20260505054731 | 21 | 193 | 9.7 | 16.1 | 0.00 | 0.41 | 0.00 | 89 | 1001.6 |
| 20260505054632 | 21 | 175 | 9.7 | 16.1 | 0.00 | 0.41 | 0.00 | 89 | 1001.6 |
| 20260505054531 | 21 | 192 | 8.0 | 16.1 | 0.00 | 0.43 | 0.00 | 89 | 1001.6 |
| 20260505054432 | 21 | 165 | 8.0 | 16.1 | 0.00 | 0.43 | 0.00 | 89 | 1001.6 |
| 20260505054332 | 21 | 183 | 8.0 | 16.1 | 0.00 | 0.43 | 0.00 | 89 | 1001.6 |
| 20260505054231 | 21 | 176 | 9.7 | 16.1 | 0.00 | 0.43 | 0.00 | 89 | 1001.6 |
| 20260505054133 | 21 | 206 | 11.3 | 16.1 | 0.00 | 0.43 | 0.00 | 89 | 1001.6 |
| 20260505054031 | 21 | 196 | 11.3 | 16.1 | 0.00 | 0.43 | 0.00 | 88 | 1001.6 |
| 20260505053931 | 21 | 185 | 11.3 | 16.1 | 0.00 | 0.43 | 0.00 | 88 | 1001.6 |
| 20260505053830 | 21 | 183 | 9.7 | 16.1 | 0.00 | 0.43 | 0.00 | 88 | 1001.6 |
| 20260505053731 | 21 | 157 | 9.7 | 16.1 | 0.00 | 0.43 | 0.00 | 88 | 1001.5 |
| 20260505053631 | 21 | 158 | 9.7 | 16.1 | 0.00 | 0.43 | 0.00 | 88 | 1001.5 |
| 20260505053531 | 21 | 164 | 9.7 | 16.1 | 0.00 | 0.43 | 0.00 | 88 | 1001.6 |
| 20260505053432 | 21 | 165 | 9.7 | 16.1 | 0.00 | 0.43 | 0.00 | 88 | 1001.5 |
| 20260505053331 | 21 | 165 | 11.3 | 16.1 | 0.00 | 0.43 | 0.00 | 88 | 1001.6 |
| 20260505053232 | 21 | 182 | 9.7 | 16.1 | 0.00 | 0.43 | 0.00 | 88 | 1001.5 |
| 20260505053129 | 21 | 164 | 9.7 | 17.7 | 0.00 | 0.43 | 0.00 | 88 | 1001.5 |
| 20260505053028 | 21 | 165 | 9.7 | 17.7 | 0.00 | 0.43 | 0.00 | 88 | 1001.6 |
| 20260505052927 | 21 | 154 | 9.7 | 17.7 | 0.00 | 0.43 | 0.00 | 88 | 1001.6 |
| 20260505052826 | 21 | 169 | 9.7 | 17.7 | 0.00 | 0.43 | 0.00 | 88 | 1001.5 |
| 20260505052722 | 21 | 188 | 9.7 | 17.7 | 0.00 | 0.43 | 0.00 | 88 | 1001.7 |
| 20260505052621 | 21 | 169 | 8.0 | 17.7 | 0.00 | 0.43 | 0.00 | 88 | 1001.6 |
| 20260505052519 | 21 | 172 | 9.7 | 17.7 | 0.00 | 0.43 | 0.00 | 88 | 1001.7 |
| 20260505052417 | 21 | 166 | 9.7 | 19.3 | 0.00 | 0.43 | 0.00 | 88 | 1001.7 |
| 20260505052318 | 21 | 155 | 9.7 | 19.3 | 0.00 | 0.43 | 0.00 | 88 | 1001.8 |
| 20260505052218 | 21 | 182 | 9.7 | 19.3 | 0.00 | 0.43 | 0.00 | 88 | 1001.8 |
| 20260505052119 | 21 | 165 | 9.7 | 19.3 | 0.00 | 0.43 | 0.00 | 88 | 1001.8 |
| 20260505052018 | 21 | 175 | 11.3 | 19.3 | 0.00 | 0.43 | 0.00 | 88 | 1001.8 |
| 20260505051919 | 21 | 175 | 9.7 | 19.3 | 0.00 | 0.43 | 0.00 | 88 | 1001.8 |
| 20260505051818 | 21 | 193 | 9.7 | 19.3 | 0.00 | 0.43 | 0.00 | 88 | 1001.8 |
| 20260505051718 | 21 | 189 | 11.3 | 19.3 | 0.00 | 0.43 | 0.00 | 88 | 1001.8 |
| 20260505051617 | 21 | 179 | 11.3 | 19.3 | 0.00 | 0.43 | 0.00 | 88 | 1001.8 |
| 20260505051517 | 21 | 196 | 11.3 | 19.3 | 0.00 | 0.43 | 0.00 | 88 | 1001.8 |
| 20260505051418 | 21 | 183 | 11.3 | 19.3 | 0.00 | 0.43 | 0.00 | 88 | 1001.9 |
| 20260505051318 | 21 | 182 | 12.9 | 19.3 | 0.00 | 0.43 | 0.00 | 88 | 1001.9 |
| 20260505051218 | 21 | 183 | 12.9 | 19.3 | 0.00 | 0.43 | 0.00 | 88 | 1001.8 |
| 20260505051119 | 21 | 192 | 12.9 | 19.3 | 0.00 | 0.43 | 0.00 | 88 | 1001.9 |
| 20260505051017 | 21 | 195 | 11.3 | 19.3 | 0.00 | 0.43 | 0.00 | 88 | 1001.9 |
| 20260505050917 | 21 | 178 | 9.7 | 19.3 | 0.00 | 0.43 | 0.00 | 88 | 1001.9 |
| 20260505050818 | 21 | 158 | 11.3 | 19.3 | 0.00 | 0.43 | 0.00 | 88 | 1001.9 |
| 20260505050717 | 21 | 179 | 11.3 | 19.3 | 0.00 | 0.43 | 0.00 | 88 | 1001.8 |
| 20260505050617 | 21 | 169 | 11.3 | 19.3 | 0.00 | 0.43 | 0.00 | 88 | 1001.9 |
| 20260505050517 | 21 | 179 | 12.9 | 19.3 | 0.00 | 0.43 | 0.00 | 88 | 1001.9 |
| 20260505050418 | 21 | 185 | 14.5 | 19.3 | 0.00 | 0.43 | 0.00 | 88 | 1002.0 |
| 20260505050318 | 21 | 190 | 12.9 | 19.3 | 0.00 | 0.43 | 0.00 | 87 | 1002.1 |
| 20260505050217 | 21 | 173 | 11.3 | 19.3 | 0.00 | 0.43 | 0.00 | 87 | 1002.0 |
| 20260505050117 | 21 | 175 | 11.3 | 19.3 | 0.00 | 0.43 | 0.00 | 87 | 1002.0 |
| 20260505041716 | 21 | 179 | 12.9 | 30.6 | 0.03 | 0.46 | 0.43 | 86 | 1002.1 |
| 20260505041617 | 21 | 210 | 12.9 | 30.6 | 0.03 | 0.46 | 0.43 | 86 | 1002.1 |
| 20260505041517 | 21 | 190 | 16.1 | 30.6 | 0.03 | 0.46 | 0.43 | 86 | 1002.1 |
| 20260505041418 | 21 | 190 | 16.1 | 30.6 | 0.03 | 0.46 | 0.43 | 86 | 1002.0 |
| 20260505041316 | 21 | 197 | 14.5 | 30.6 | 0.03 | 0.46 | 0.43 | 86 | 1002.1 |
| 20260505041217 | 21 | 192 | 14.5 | 24.1 | 0.03 | 0.46 | 0.43 | 86 | 1002.1 |
| 20260505041116 | 21 | 188 | 14.5 | 24.1 | 0.03 | 0.46 | 0.43 | 86 | 1002.0 |
| 20260505041016 | 21 | 176 | 14.5 | 22.5 | 0.03 | 0.46 | 0.43 | 85 | 1002.1 |
| 20260505040917 | 21 | 189 | 12.9 | 22.5 | 0.03 | 0.46 | 0.43 | 85 | 1002.1 |
| 20260505040817 | 21 | 193 | 11.3 | 22.5 | 0.03 | 0.46 | 0.43 | 85 | 1002.1 |
| 20260505040716 | 21 | 162 | 12.9 | 22.5 | 0.03 | 0.46 | 0.43 | 85 | 1002.0 |
| 20260505040615 | 21 | 189 | 12.9 | 22.5 | 0.03 | 0.46 | 0.43 | 85 | 1002.0 |
| 20260505040517 | 21 | 158 | 14.5 | 22.5 | 0.03 | 0.46 | 0.43 | 85 | 1002.0 |
| 20260505040415 | 21 | 173 | 12.9 | 22.5 | 0.03 | 0.46 | 0.43 | 85 | 1002.0 |
| 20260505040316 | 21 | 168 | 14.5 | 20.9 | 0.03 | 0.46 | 0.43 | 85 | 1002.0 |
| 20260505040217 | 21 | 185 | 14.5 | 20.9 | 0.03 | 0.46 | 0.43 | 85 | 1002.0 |
| 20260505040116 | 21 | 157 | 12.9 | 20.9 | 0.03 | 0.46 | 0.43 | 85 | 1002.1 |
| 20260505040016 | 21 | 169 | 14.5 | 20.9 | 0.03 | 0.46 | 0.43 | 85 | 1002.2 |
| 20260505035915 | 21 | 196 | 14.5 | 20.9 | 0.03 | 0.46 | 0.43 | 85 | 1002.1 |